Time,TemperatureF,DewpointF,PressureIn,WindDirection,WindDirectionDegrees,WindSpeedMPH,WindSpeedGustMPH,Humidity,HourlyPrecipIn,Conditions,Clouds,dailyrainin,SolarRadiationWatts/m^2,SoftwareType,DateUTC
2013-04-18 00:00:00,47.4,37.4,29.71,NW,325,0.0,0.0,68,0.00,,CLR,0.00,0.00,VWS V14.01,2013-04-18 07:00:00,
2013-04-18 00:01:00,47.4,37.8,29.71,NW,325,0.0,0.0,69,0.00,,CLR,0.00,0.00,VWS V14.01,2013-04-18 07:01:00,
2013-04-18 00:02:00,47.3,37.7,29.71,NW,325,0.0,0.0,69,0.00,,CLR,0.00,0.00,VWS V14.01,2013-04-18 07:02:00,
2013-04-18 00:05:00,47.0,38.1,29.71,NW,325,0.0,0.0,71,0.00,,CLR,0.00,0.00,VWS V14.01,2013-04-18 07:05:00,
2013-04-18 00:06:00,46.9,38.0,29.71,NW,325,0.0,0.0,71,0.00,,CLR,0.00,0.00,VWS V14.01,2013-04-18 07:06:00,
2013-04-18 00:07:00,46.9,38.0,29.71,NW,325,0.0,0.0,71,0.00,,CLR,0.00,0.00,VWS V14.01,2013-04-18 07:07:00,
2013-04-18 00:10:00,46.7,37.8,29.71,NW,325,0.0,0.0,71,0.00,,CLR,0.00,0.00,VWS V14.01,2013-04-18 07:10:00,
2013-04-18 00:11:00,46.6,37.7,29.71,NW,325,0.0,0.0,71,0.00,,CLR,0.00,0.00,VWS V14.01,2013-04-18 07:11:00,
2013-04-18 00:12:00,46.6,37.7,29.71,NW,325,0.0,0.0,71,0.00,,CLR,0.00,0.00,VWS V14.01,2013-04-18 07:12:00,
2013-04-18 00:15:00,46.4,37.5,29.71,NW,325,0.0,0.0,71,0.00,,CLR,0.00,0.00,VWS V14.01,2013-04-18 07:15:00,
2013-04-18 00:17:00,46.3,37.4,29.72,NW,325,0.0,0.0,71,0.00,,CLR,0.00,0.00,VWS V14.01,2013-04-18 07:17:00,
2013-04-18 00:20:00,46.1,37.6,29.72,NW,325,0.0,0.0,72,0.00,,CLR,0.00,0.00,VWS V14.01,2013-04-18 07:20:00,
2013-04-18 00:22:00,46.1,37.6,29.72,NW,325,0.0,0.0,72,0.00,,CLR,0.00,0.00,VWS V14.01,2013-04-18 07:22:00,
2013-04-18 00:25:00,45.9,37.4,29.72,NW,325,0.0,0.0,72,0.00,,CLR,0.00,0.00,VWS V14.01,2013-04-18 07:25:00,
2013-04-18 00:26:00,45.9,37.4,29.72,NW,325,0.0,0.0,72,0.00,,CLR,0.00,0.00,VWS V14.01,2013-04-18 07:26:00,
2013-04-18 00:27:00,45.9,37.4,29.71,NW,325,0.0,0.0,72,0.00,,CLR,0.00,0.00,VWS V14.01,2013-04-18 07:27:00,
2013-04-18 00:28:00,45.8,37.3,29.72,NW,325,0.0,0.0,72,0.00,,CLR,0.00,0.00,VWS V14.01,2013-04-18 07:28:00,
2013-04-18 00:30:00,45.8,37.3,29.72,NW,325,0.0,0.0,72,0.00,,CLR,0.00,0.00,VWS V14.01,2013-04-18 07:30:00,
2013-04-18 00:31:00,45.7,37.5,29.72,NW,325,0.0,0.0,73,0.00,,CLR,0.00,0.00,VWS V14.01,2013-04-18 07:31:00,
2013-04-18 00:32:00,45.7,37.5,29.72,NW,325,0.0,0.0,73,0.00,,CLR,0.00,0.00,VWS V14.01,2013-04-18 07:32:00,
2013-04-18 00:34:00,45.6,37.5,29.72,NW,325,0.0,0.0,73,0.00,,CLR,0.00,0.00,VWS V14.01,2013-04-18 07:34:00,
2013-04-18 00:36:00,45.5,37.4,29.72,NW,325,0.0,0.0,73,0.00,,CLR,0.00,0.00,VWS V14.01,2013-04-18 07:36:00,
2013-04-18 00:37:00,45.5,37.4,29.72,NW,325,0.0,0.0,73,0.00,,CLR,0.00,0.00,VWS V14.01,2013-04-18 07:37:00,
2013-04-18 00:39:00,45.4,37.3,29.72,NW,325,0.0,0.0,73,0.00,,CLR,0.00,0.00,VWS V14.01,2013-04-18 07:39:00,
2013-04-18 00:40:00,45.4,37.3,29.72,NW,325,0.0,0.0,73,0.00,,CLR,0.00,0.00,VWS V14.01,2013-04-18 07:40:00,
2013-04-18 00:41:00,45.4,37.3,29.72,NW,325,0.0,0.0,73,0.00,,CLR,0.00,0.00,VWS V14.01,2013-04-18 07:41:00,
2013-04-18 00:42:00,45.4,37.6,29.72,NW,325,0.0,0.0,74,0.00,,CLR,0.00,0.00,VWS V14.01,2013-04-18 07:42:00,
2013-04-18 00:43:00,45.3,37.5,29.72,NW,325,0.0,0.0,74,0.00,,CLR,0.00,0.00,VWS V14.01,2013-04-18 07:43:00,
2013-04-18 00:44:00,45.3,37.5,29.72,NW,325,0.0,0.0,74,0.00,,CLR,0.00,0.00,VWS V14.01,2013-04-18 07:44:00,
2013-04-18 00:46:00,45.3,37.5,29.72,NW,325,0.0,0.0,74,0.00,,CLR,0.00,0.00,VWS V14.01,2013-04-18 07:46:00,
2013-04-18 00:47:00,45.2,37.4,29.72,NW,325,0.0,0.0,74,0.00,,CLR,0.00,0.00,VWS V14.01,2013-04-18 07:47:00,
2013-04-18 00:48:00,45.2,37.4,29.72,NW,325,0.0,0.0,74,0.00,,CLR,0.00,0.00,VWS V14.01,2013-04-18 07:48:00,
2013-04-18 00:49:00,45.2,37.4,29.72,NW,325,0.0,0.0,74,0.00,,CLR,0.00,0.00,VWS V14.01,2013-04-18 07:49:00,
2013-04-18 00:50:00,45.2,37.4,29.72,NW,325,0.0,0.0,74,0.00,,CLR,0.00,0.00,VWS V14.01,2013-04-18 07:50:00,
2013-04-18 00:51:00,45.1,37.3,29.72,NW,325,0.0,0.0,74,0.00,,CLR,0.00,0.00,VWS V14.01,2013-04-18 07:51:00,
2013-04-18 00:52:00,45.1,37.3,29.72,NW,325,0.0,0.0,74,0.00,,CLR,0.00,0.00,VWS V14.01,2013-04-18 07:52:00,
2013-04-18 00:53:00,45.0,37.2,29.72,NW,325,0.0,0.0,74,0.00,,CLR,0.00,0.00,VWS V14.01,2013-04-18 07:53:00,
2013-04-18 00:54:00,45.0,37.2,29.72,NW,325,0.0,0.0,74,0.00,,CLR,0.00,0.00,VWS V14.01,2013-04-18 07:54:00,
2013-04-18 00:56:00,44.9,37.5,29.72,NW,325,0.0,0.0,75,0.00,,CLR,0.00,0.00,VWS V14.01,2013-04-18 07:56:00,
2013-04-18 00:57:00,44.8,37.4,29.72,NW,325,0.0,0.0,75,0.00,,CLR,0.00,0.00,VWS V14.01,2013-04-18 07:57:00,
2013-04-18 00:58:00,44.8,37.4,29.72,NW,325,0.0,0.0,75,0.00,,CLR,0.00,0.00,VWS V14.01,2013-04-18 07:58:00,
2013-04-18 00:59:00,44.7,37.3,29.72,NW,325,0.0,0.0,75,0.00,,CLR,0.00,0.00,VWS V14.01,2013-04-18 07:59:00,
2013-04-18 01:00:00,44.7,37.3,29.72,NW,325,0.0,0.0,75,0.00,,CLR,0.00,0.00,VWS V14.01,2013-04-18 08:00:00,
2013-04-18 01:01:00,44.7,37.3,29.72,NW,325,0.0,0.0,75,0.00,,CLR,0.00,0.00,VWS V14.01,2013-04-18 08:01:00,
2013-04-18 01:02:00,44.6,37.2,29.72,NW,325,0.0,0.0,75,0.00,,CLR,0.00,0.00,VWS V14.01,2013-04-18 08:02:00,
2013-04-18 01:04:00,44.5,37.1,29.72,NW,325,0.0,0.0,75,0.00,,CLR,0.00,0.00,VWS V14.01,2013-04-18 08:04:00,
2013-04-18 01:05:00,44.5,37.1,29.72,NW,325,0.0,0.0,75,0.00,,CLR,0.00,0.00,VWS V14.01,2013-04-18 08:05:00,
2013-04-18 01:07:00,44.5,37.1,29.72,NW,325,0.0,0.0,75,0.00,,CLR,0.00,0.00,VWS V14.01,2013-04-18 08:07:00,
2013-04-18 01:09:00,44.4,37.0,29.72,NW,325,0.0,0.0,75,0.00,,CLR,0.00,0.00,VWS V14.01,2013-04-18 08:09:00,
2013-04-18 01:10:00,44.3,36.9,29.72,NW,325,0.0,0.0,75,0.00,,CLR,0.00,0.00,VWS V14.01,2013-04-18 08:10:00,
2013-04-18 01:12:00,44.3,36.9,29.72,NW,325,0.0,0.0,75,0.00,,CLR,0.00,0.00,VWS V14.01,2013-04-18 08:12:00,
2013-04-18 01:14:00,44.2,36.8,29.72,NW,325,0.0,0.0,75,0.00,,CLR,0.00,0.00,VWS V14.01,2013-04-18 08:14:00,
2013-04-18 01:15:00,44.2,36.8,29.72,NW,325,0.0,0.0,75,0.00,,CLR,0.00,0.00,VWS V14.01,2013-04-18 08:15:00,
2013-04-18 01:17:00,44.2,36.8,29.72,NW,325,0.0,0.0,75,0.00,,CLR,0.00,0.00,VWS V14.01,2013-04-18 08:17:00,
2013-04-18 01:18:00,44.1,36.7,29.72,NW,325,0.0,0.0,75,0.00,,CLR,0.00,0.00,VWS V14.01,2013-04-18 08:18:00,
2013-04-18 01:19:00,44.1,37.0,29.72,NW,325,0.0,0.0,76,0.00,,CLR,0.00,0.00,VWS V14.01,2013-04-18 08:19:00,
2013-04-18 01:20:00,44.0,36.9,29.72,NW,325,0.0,0.0,76,0.00,,CLR,0.00,0.00,VWS V14.01,2013-04-18 08:20:00,
2013-04-18 01:22:00,43.9,36.8,29.72,NW,325,0.0,0.0,76,0.00,,CLR,0.00,0.00,VWS V14.01,2013-04-18 08:22:00,
2013-04-18 01:23:00,43.9,36.8,29.72,NW,325,0.0,0.0,76,0.00,,CLR,0.00,0.00,VWS V14.01,2013-04-18 08:23:00,
2013-04-18 01:24:00,43.8,36.7,29.72,NW,325,0.0,0.0,76,0.00,,CLR,0.00,0.00,VWS V14.01,2013-04-18 08:24:00,
2013-04-18 01:26:00,43.7,36.6,29.72,NW,325,0.0,0.0,76,0.00,,CLR,0.00,0.00,VWS V14.01,2013-04-18 08:26:00,
2013-04-18 01:27:00,43.7,36.6,29.72,NW,325,0.0,0.0,76,0.00,,CLR,0.00,0.00,VWS V14.01,2013-04-18 08:27:00,
2013-04-18 01:28:00,43.6,36.5,29.72,NW,325,0.0,0.0,76,0.00,,CLR,0.00,0.00,VWS V14.01,2013-04-18 08:28:00,
2013-04-18 01:29:00,43.6,36.9,29.72,NW,325,0.0,0.0,77,0.00,,CLR,0.00,0.00,VWS V14.01,2013-04-18 08:29:00,
2013-04-18 01:30:00,43.6,36.9,29.72,NW,325,0.0,0.0,77,0.00,,CLR,0.00,0.00,VWS V14.01,2013-04-18 08:30:00,
2013-04-18 01:31:00,43.5,36.8,29.72,NW,325,0.0,0.0,77,0.00,,CLR,0.00,0.00,VWS V14.01,2013-04-18 08:31:00,
2013-04-18 01:32:00,43.4,36.7,29.72,NW,325,0.0,0.0,77,0.00,,CLR,0.00,0.00,VWS V14.01,2013-04-18 08:32:00,
2013-04-18 01:34:00,43.4,36.7,29.72,NW,325,0.0,0.0,77,0.00,,CLR,0.00,0.00,VWS V14.01,2013-04-18 08:34:00,
2013-04-18 01:36:00,43.3,36.6,29.72,NW,325,0.0,0.0,77,0.00,,CLR,0.00,0.00,VWS V14.01,2013-04-18 08:36:00,
2013-04-18 01:37:00,43.3,36.6,29.72,NW,325,0.0,0.0,77,0.00,,CLR,0.00,0.00,VWS V14.01,2013-04-18 08:37:00,
2013-04-18 01:38:00,43.3,36.6,29.72,NW,325,0.0,0.0,77,0.00,,CLR,0.00,0.00,VWS V14.01,2013-04-18 08:38:00,
2013-04-18 01:39:00,43.2,36.5,29.72,NW,325,0.0,0.0,77,0.00,,CLR,0.00,0.00,VWS V14.01,2013-04-18 08:39:00,
2013-04-18 01:40:00,43.2,36.5,29.72,NW,325,0.0,0.0,77,0.00,,CLR,0.00,0.00,VWS V14.01,2013-04-18 08:40:00,
2013-04-18 01:41:00,43.2,36.5,29.72,NW,325,0.0,0.0,77,0.00,,CLR,0.00,0.00,VWS V14.01,2013-04-18 08:41:00,
2013-04-18 01:42:00,43.2,36.5,29.72,NW,325,0.0,0.0,77,0.00,,CLR,0.00,0.00,VWS V14.01,2013-04-18 08:42:00,
2013-04-18 01:43:00,43.1,36.4,29.72,NW,325,0.0,0.0,77,0.00,,CLR,0.00,0.00,VWS V14.01,2013-04-18 08:43:00,
2013-04-18 01:44:00,43.1,36.4,29.72,NW,325,0.0,0.0,77,0.00,,CLR,0.00,0.00,VWS V14.01,2013-04-18 08:44:00,
2013-04-18 01:45:00,43.1,36.4,29.72,NW,325,0.0,0.0,77,0.00,,CLR,0.00,0.00,VWS V14.01,2013-04-18 08:45:00,
2013-04-18 01:46:00,43.1,36.4,29.72,NW,325,0.0,0.0,77,0.00,,CLR,0.00,0.00,VWS V14.01,2013-04-18 08:46:00,
2013-04-18 01:47:00,43.0,36.3,29.72,NW,325,0.0,0.0,77,0.00,,CLR,0.00,0.00,VWS V14.01,2013-04-18 08:47:00,
2013-04-18 01:48:00,43.0,36.6,29.72,NW,325,0.0,0.0,78,0.00,,CLR,0.00,0.00,VWS V14.01,2013-04-18 08:48:00,
2013-04-18 01:49:00,42.9,36.5,29.72,NW,325,0.0,0.0,78,0.00,,CLR,0.00,0.00,VWS V14.01,2013-04-18 08:49:00,
2013-04-18 01:50:00,42.9,36.5,29.72,NW,325,0.0,0.0,78,0.00,,CLR,0.00,0.00,VWS V14.01,2013-04-18 08:50:00,
2013-04-18 01:51:00,42.9,36.5,29.72,NW,325,0.0,0.0,78,0.00,,CLR,0.00,0.00,VWS V14.01,2013-04-18 08:51:00,
2013-04-18 01:52:00,42.9,36.5,29.72,NW,325,0.0,0.0,78,0.00,,CLR,0.00,0.00,VWS V14.01,2013-04-18 08:52:00,
2013-04-18 01:53:00,42.8,36.4,29.72,NW,325,0.0,0.0,78,0.00,,CLR,0.00,0.00,VWS V14.01,2013-04-18 08:53:00,
2013-04-18 01:54:00,42.8,36.4,29.72,NW,325,0.0,0.0,78,0.00,,CLR,0.00,0.00,VWS V14.01,2013-04-18 08:54:00,
2013-04-18 01:55:00,42.7,36.3,29.72,NW,325,0.0,0.0,78,0.00,,CLR,0.00,0.00,VWS V14.01,2013-04-18 08:55:00,
2013-04-18 01:57:00,42.7,36.3,29.72,NW,325,0.0,0.0,78,0.00,,CLR,0.00,0.00,VWS V14.01,2013-04-18 08:57:00,
2013-04-18 01:58:00,42.7,36.3,29.72,NW,325,0.0,0.0,78,0.00,,CLR,0.00,0.00,VWS V14.01,2013-04-18 08:58:00,
2013-04-18 01:59:00,42.6,36.2,29.72,NW,325,0.0,0.0,78,0.00,,CLR,0.00,0.00,VWS V14.01,2013-04-18 08:59:00,
2013-04-18 02:00:00,42.6,36.2,29.72,NW,325,0.0,0.0,78,0.00,,CLR,0.00,0.00,VWS V14.01,2013-04-18 09:00:00,
2013-04-18 02:02:00,42.5,36.1,29.71,NW,325,0.0,0.0,78,0.00,,CLR,0.00,0.00,VWS V14.01,2013-04-18 09:02:00,
2013-04-18 02:03:00,42.5,36.1,29.71,NW,325,0.0,0.0,78,0.00,,CLR,0.00,0.00,VWS V14.01,2013-04-18 09:03:00,
2013-04-18 02:04:00,42.5,36.5,29.72,NW,325,0.0,0.0,79,0.00,,CLR,0.00,0.00,VWS V14.01,2013-04-18 09:04:00,
2013-04-18 02:07:00,42.4,36.4,29.72,NW,325,0.0,0.0,79,0.00,,CLR,0.00,0.00,VWS V14.01,2013-04-18 09:07:00,
2013-04-18 02:08:00,42.4,36.4,29.71,NW,325,0.0,0.0,79,0.00,,CLR,0.00,0.00,VWS V14.01,2013-04-18 09:08:00,
2013-04-18 02:09:00,42.3,36.3,29.72,NW,325,0.0,0.0,79,0.00,,CLR,0.00,0.00,VWS V14.01,2013-04-18 09:09:00,
2013-04-18 02:10:00,42.3,36.3,29.72,NW,325,0.0,0.0,79,0.00,,CLR,0.00,0.00,VWS V14.01,2013-04-18 09:10:00,
2013-04-18 02:12:00,42.3,36.3,29.71,NW,325,0.0,0.0,79,0.00,,CLR,0.00,0.00,VWS V14.01,2013-04-18 09:12:00,
2013-04-18 02:13:00,42.2,36.2,29.71,NW,325,0.0,0.0,79,0.00,,CLR,0.00,0.00,VWS V14.01,2013-04-18 09:13:00,
2013-04-18 02:14:00,42.2,36.2,29.72,NW,325,0.0,0.0,79,0.00,,CLR,0.00,0.00,VWS V14.01,2013-04-18 09:14:00,
2013-04-18 02:17:00,42.1,36.1,29.71,NW,325,0.0,1.0,79,0.00,,CLR,0.00,0.00,VWS V14.01,2013-04-18 09:17:00,
2013-04-18 02:18:00,42.1,36.1,29.71,NW,325,0.0,1.0,79,0.00,,CLR,0.00,0.00,VWS V14.01,2013-04-18 09:18:00,
2013-04-18 02:19:00,42.0,36.0,29.72,NW,325,0.0,1.0,79,0.00,,CLR,0.00,0.00,VWS V14.01,2013-04-18 09:19:00,
2013-04-18 02:20:00,42.0,36.0,29.72,NW,325,0.0,1.0,79,0.00,,CLR,0.00,0.00,VWS V14.01,2013-04-18 09:20:00,
2013-04-18 02:22:00,41.9,36.2,29.72,NW,325,0.0,0.0,80,0.00,,CLR,0.00,0.00,VWS V14.01,2013-04-18 09:22:00,
2013-04-18 02:23:00,41.9,36.2,29.72,NW,325,0.0,0.0,80,0.00,,CLR,0.00,0.00,VWS V14.01,2013-04-18 09:23:00,
2013-04-18 02:24:00,41.9,36.2,29.72,NW,325,0.0,0.0,80,0.00,,CLR,0.00,0.00,VWS V14.01,2013-04-18 09:24:00,
2013-04-18 02:27:00,41.8,36.1,29.72,NW,325,0.0,0.0,80,0.00,,CLR,0.00,0.00,VWS V14.01,2013-04-18 09:27:00,
2013-04-18 02:28:00,41.8,36.4,29.71,NW,325,0.0,0.0,81,0.00,,CLR,0.00,0.00,VWS V14.01,2013-04-18 09:28:00,
2013-04-18 02:29:00,41.6,36.2,29.71,NW,325,0.0,0.0,81,0.00,,CLR,0.00,0.00,VWS V14.01,2013-04-18 09:29:00,
2013-04-18 02:30:00,41.7,36.3,29.71,NW,325,0.0,0.0,81,0.00,,CLR,0.00,0.00,VWS V14.01,2013-04-18 09:30:00,
2013-04-18 02:32:00,41.6,36.2,29.72,NW,325,0.0,1.0,81,0.00,,CLR,0.00,0.00,VWS V14.01,2013-04-18 09:32:00,
2013-04-18 02:33:00,41.6,36.2,29.71,NW,325,0.0,1.0,81,0.00,,CLR,0.00,0.00,VWS V14.01,2013-04-18 09:33:00,
2013-04-18 02:34:00,41.5,36.1,29.71,NW,325,0.0,1.0,81,0.00,,CLR,0.00,0.00,VWS V14.01,2013-04-18 09:34:00,
2013-04-18 02:37:00,41.5,35.8,29.71,NW,325,0.0,1.0,80,0.00,,CLR,0.00,0.00,VWS V14.01,2013-04-18 09:37:00,
2013-04-18 02:38:00,41.5,35.8,29.71,NW,325,0.0,1.0,80,0.00,,CLR,0.00,0.00,VWS V14.01,2013-04-18 09:38:00,
2013-04-18 02:39:00,41.4,35.7,29.71,NW,325,0.0,1.0,80,0.00,,CLR,0.00,0.00,VWS V14.01,2013-04-18 09:39:00,
2013-04-18 02:40:00,41.4,35.7,29.71,NW,325,0.0,1.0,80,0.00,,CLR,0.00,0.00,VWS V14.01,2013-04-18 09:40:00,
2013-04-18 02:42:00,41.4,36.0,29.71,NW,325,0.0,0.0,81,0.00,,CLR,0.00,0.00,VWS V14.01,2013-04-18 09:42:00,
2013-04-18 02:43:00,41.5,36.1,29.71,NW,325,0.0,0.0,81,0.00,,CLR,0.00,0.00,VWS V14.01,2013-04-18 09:43:00,
2013-04-18 02:44:00,41.4,36.0,29.71,NW,325,0.0,0.0,81,0.00,,CLR,0.00,0.00,VWS V14.01,2013-04-18 09:44:00,
2013-04-18 02:47:00,41.4,36.0,29.72,NW,325,0.0,0.0,81,0.00,,CLR,0.00,0.00,VWS V14.01,2013-04-18 09:47:00,
2013-04-18 02:48:00,41.4,36.0,29.72,NW,325,0.0,0.0,81,0.00,,CLR,0.00,0.00,VWS V14.01,2013-04-18 09:48:00,
2013-04-18 02:49:00,41.3,35.9,29.72,NW,325,0.0,0.0,81,0.00,,CLR,0.00,0.00,VWS V14.01,2013-04-18 09:49:00,
2013-04-18 02:50:00,41.3,35.9,29.72,NW,325,0.0,0.0,81,0.00,,CLR,0.00,0.00,VWS V14.01,2013-04-18 09:50:00,
2013-04-18 02:53:00,41.3,35.9,29.71,NW,325,0.0,0.0,81,0.00,,CLR,0.00,0.00,VWS V14.01,2013-04-18 09:53:00,
2013-04-18 02:54:00,41.3,35.9,29.71,NW,325,0.0,0.0,81,0.00,,CLR,0.00,0.00,VWS V14.01,2013-04-18 09:54:00,
2013-04-18 02:55:00,41.3,35.9,29.71,NW,325,0.0,0.0,81,0.00,,CLR,0.00,0.00,VWS V14.01,2013-04-18 09:55:00,
2013-04-18 02:58:00,41.2,35.8,29.71,NW,325,0.0,0.0,81,0.00,,CLR,0.00,0.00,VWS V14.01,2013-04-18 09:58:00,
2013-04-18 02:59:00,41.2,35.8,29.71,NW,325,0.0,0.0,81,0.00,,CLR,0.00,0.00,VWS V14.01,2013-04-18 09:59:00,
2013-04-18 03:00:00,41.2,35.8,29.71,NW,325,0.0,0.0,81,0.00,,CLR,0.00,0.00,VWS V14.01,2013-04-18 10:00:00,
2013-04-18 03:03:00,41.1,35.7,29.72,NW,325,0.0,0.0,81,0.00,,CLR,0.00,0.00,VWS V14.01,2013-04-18 10:03:00,
2013-04-18 03:04:00,41.1,35.7,29.72,NW,325,0.0,0.0,81,0.00,,CLR,0.00,0.00,VWS V14.01,2013-04-18 10:04:00,
2013-04-18 03:05:00,41.1,35.7,29.72,NW,325,0.0,0.0,81,0.00,,CLR,0.00,0.00,VWS V14.01,2013-04-18 10:05:00,
2013-04-18 03:08:00,41.0,35.6,29.72,NW,325,0.0,0.0,81,0.00,,CLR,0.00,0.00,VWS V14.01,2013-04-18 10:08:00,
2013-04-18 03:09:00,41.0,35.6,29.72,NW,325,0.0,0.0,81,0.00,,CLR,0.00,0.00,VWS V14.01,2013-04-18 10:09:00,
2013-04-18 03:10:00,41.0,35.6,29.72,NW,325,0.0,0.0,81,0.00,,CLR,0.00,0.00,VWS V14.01,2013-04-18 10:10:00,
2013-04-18 03:13:00,41.0,35.6,29.71,NW,325,0.0,0.0,81,0.00,,CLR,0.00,0.00,VWS V14.01,2013-04-18 10:13:00,
2013-04-18 03:14:00,40.9,35.5,29.71,NW,325,0.0,0.0,81,0.00,,CLR,0.00,0.00,VWS V14.01,2013-04-18 10:14:00,
2013-04-18 03:15:00,40.9,35.5,29.71,NW,325,0.0,0.0,81,0.00,,CLR,0.00,0.00,VWS V14.01,2013-04-18 10:15:00,
2013-04-18 03:18:00,40.9,35.5,29.71,NW,325,0.0,1.0,81,0.00,,CLR,0.00,0.00,VWS V14.01,2013-04-18 10:18:00,
2013-04-18 03:19:00,40.9,35.5,29.71,NW,325,0.0,1.0,81,0.00,,CLR,0.00,0.00,VWS V14.01,2013-04-18 10:19:00,
2013-04-18 03:20:00,40.9,35.5,29.71,NW,325,0.0,1.0,81,0.00,,CLR,0.00,0.00,VWS V14.01,2013-04-18 10:20:00,
2013-04-18 03:23:00,40.7,35.3,29.72,NW,325,0.0,0.0,81,0.00,,CLR,0.00,0.00,VWS V14.01,2013-04-18 10:23:00,
2013-04-18 03:24:00,40.7,35.3,29.72,NW,325,0.0,0.0,81,0.00,,CLR,0.00,0.00,VWS V14.01,2013-04-18 10:24:00,
2013-04-18 03:25:00,40.7,35.3,29.72,NW,325,0.0,0.0,81,0.00,,CLR,0.00,0.00,VWS V14.01,2013-04-18 10:25:00,
2013-04-18 03:28:00,40.6,35.5,29.72,NW,325,0.0,0.0,82,0.00,,CLR,0.00,0.00,VWS V14.01,2013-04-18 10:28:00,
2013-04-18 03:29:00,40.6,35.5,29.72,NW,325,0.0,0.0,82,0.00,,CLR,0.00,0.00,VWS V14.01,2013-04-18 10:29:00,
2013-04-18 03:30:00,40.6,35.5,29.72,NW,325,0.0,0.0,82,0.00,,CLR,0.00,0.00,VWS V14.01,2013-04-18 10:30:00,
2013-04-18 03:34:00,40.4,35.3,29.72,NW,325,0.0,1.0,82,0.00,,CLR,0.00,0.00,VWS V14.01,2013-04-18 10:34:00,
2013-04-18 03:35:00,40.4,35.3,29.72,NW,325,0.0,1.0,82,0.00,,CLR,0.00,0.00,VWS V14.01,2013-04-18 10:35:00,
2013-04-18 03:39:00,40.4,35.7,29.71,NW,325,0.0,1.0,83,0.00,,CLR,0.00,0.00,VWS V14.01,2013-04-18 10:39:00,
2013-04-18 03:40:00,40.4,35.7,29.72,NW,325,0.0,0.0,83,0.00,,CLR,0.00,0.00,VWS V14.01,2013-04-18 10:40:00,
2013-04-18 03:44:00,40.3,35.6,29.71,NW,325,0.0,0.0,83,0.00,,CLR,0.00,0.00,VWS V14.01,2013-04-18 10:44:00,
2013-04-18 03:45:00,40.2,35.5,29.72,NW,325,0.0,0.0,83,0.00,,CLR,0.00,0.00,VWS V14.01,2013-04-18 10:45:00,
2013-04-18 03:46:00,40.2,35.5,29.72,NW,325,0.0,0.0,83,0.00,,CLR,0.00,0.00,VWS V14.01,2013-04-18 10:46:00,
2013-04-18 03:49:00,40.1,35.4,29.72,NW,325,0.0,0.0,83,0.00,,CLR,0.00,0.00,VWS V14.01,2013-04-18 10:49:00,
2013-04-18 03:50:00,40.1,35.4,29.71,NW,325,0.0,0.0,83,0.00,,CLR,0.00,0.00,VWS V14.01,2013-04-18 10:50:00,
2013-04-18 03:52:00,40.1,35.4,29.72,NW,325,0.0,0.0,83,0.00,,CLR,0.00,0.00,VWS V14.01,2013-04-18 10:52:00,
2013-04-18 03:54:00,40.0,35.3,29.71,NW,325,0.0,0.0,83,0.00,,CLR,0.00,0.00,VWS V14.01,2013-04-18 10:54:00,
2013-04-18 03:55:00,40.0,35.3,29.71,NW,325,0.0,0.0,83,0.00,,CLR,0.00,0.00,VWS V14.01,2013-04-18 10:55:00,
2013-04-18 03:57:00,39.9,35.2,29.71,NW,325,0.0,0.0,83,0.00,,CLR,0.00,0.00,VWS V14.01,2013-04-18 10:57:00,
2013-04-18 03:59:00,39.8,35.1,29.71,NW,325,0.0,0.0,83,0.00,,CLR,0.00,0.00,VWS V14.01,2013-04-18 10:59:00,
2013-04-18 04:00:00,39.8,35.1,29.71,NW,325,0.0,0.0,83,0.00,,CLR,0.00,0.00,VWS V14.01,2013-04-18 11:00:00,
2013-04-18 04:01:00,39.8,35.1,29.71,NW,325,0.0,0.0,83,0.00,,CLR,0.00,0.00,VWS V14.01,2013-04-18 11:01:00,
2013-04-18 04:02:00,39.8,35.1,29.71,NW,325,0.0,0.0,83,0.00,,CLR,0.00,0.00,VWS V14.01,2013-04-18 11:02:00,
2013-04-18 04:04:00,39.7,35.3,29.71,NW,325,0.0,0.0,84,0.00,,CLR,0.00,0.00,VWS V14.01,2013-04-18 11:04:00,
2013-04-18 04:06:00,39.7,35.0,29.72,NW,325,0.0,0.0,83,0.00,,CLR,0.00,0.00,VWS V14.01,2013-04-18 11:06:00,
2013-04-18 04:07:00,39.7,35.3,29.71,NW,325,0.0,0.0,84,0.00,,CLR,0.00,0.00,VWS V14.01,2013-04-18 11:07:00,
2013-04-18 04:09:00,39.7,35.3,29.72,NW,325,0.0,1.0,84,0.00,,CLR,0.00,0.00,VWS V14.01,2013-04-18 11:09:00,
2013-04-18 04:10:00,39.7,35.3,29.72,NW,325,0.0,1.0,84,0.00,,CLR,0.00,0.00,VWS V14.01,2013-04-18 11:10:00,
2013-04-18 04:11:00,39.7,35.3,29.71,NW,325,0.0,1.0,84,0.00,,CLR,0.00,0.00,VWS V14.01,2013-04-18 11:11:00,
2013-04-18 04:12:00,39.7,35.3,29.71,NW,325,0.0,1.0,84,0.00,,CLR,0.00,0.00,VWS V14.01,2013-04-18 11:12:00,
2013-04-18 04:14:00,39.6,35.2,29.72,NW,325,0.0,1.0,84,0.00,,CLR,0.00,0.00,VWS V14.01,2013-04-18 11:14:00,
2013-04-18 04:16:00,39.6,35.2,29.72,NW,325,0.0,1.0,84,0.00,,CLR,0.00,0.00,VWS V14.01,2013-04-18 11:16:00,
2013-04-18 04:17:00,39.6,35.2,29.72,NW,325,0.0,1.0,84,0.00,,CLR,0.00,0.00,VWS V14.01,2013-04-18 11:17:00,
2013-04-18 04:20:00,39.6,35.2,29.72,NW,325,0.0,0.0,84,0.00,,CLR,0.00,0.00,VWS V14.01,2013-04-18 11:20:00,
2013-04-18 04:21:00,39.6,35.2,29.72,NW,325,0.0,0.0,84,0.00,,CLR,0.00,0.00,VWS V14.01,2013-04-18 11:21:00,
2013-04-18 04:22:00,39.6,35.2,29.72,NW,325,0.0,1.0,84,0.00,,CLR,0.00,0.00,VWS V14.01,2013-04-18 11:22:00,
2013-04-18 04:25:00,39.5,35.1,29.72,NW,325,0.0,1.0,84,0.00,,CLR,0.00,0.00,VWS V14.01,2013-04-18 11:25:00,
2013-04-18 04:26:00,39.5,35.1,29.71,NW,325,0.0,1.0,84,0.00,,CLR,0.00,0.00,VWS V14.01,2013-04-18 11:26:00,
2013-04-18 04:27:00,39.5,35.1,29.72,NW,325,0.0,1.0,84,0.00,,CLR,0.00,0.00,VWS V14.01,2013-04-18 11:27:00,
2013-04-18 04:28:00,39.5,35.1,29.71,NW,325,0.0,1.0,84,0.00,,CLR,0.00,0.00,VWS V14.01,2013-04-18 11:28:00,
2013-04-18 04:30:00,39.5,35.1,29.72,NW,325,0.0,1.0,84,0.00,,CLR,0.00,0.00,VWS V14.01,2013-04-18 11:30:00,
2013-04-18 04:31:00,39.4,35.0,29.72,NW,325,0.0,0.0,84,0.00,,CLR,0.00,0.00,VWS V14.01,2013-04-18 11:31:00,
2013-04-18 04:32:00,39.4,35.0,29.72,NW,325,0.0,0.0,84,0.00,,CLR,0.00,0.00,VWS V14.01,2013-04-18 11:32:00,
2013-04-18 04:33:00,39.3,34.9,29.72,NW,325,0.0,0.0,84,0.00,,CLR,0.00,0.00,VWS V14.01,2013-04-18 11:33:00,
2013-04-18 04:36:00,39.3,34.9,29.72,NW,325,0.0,0.0,84,0.00,,CLR,0.00,0.00,VWS V14.01,2013-04-18 11:36:00,
2013-04-18 04:37:00,39.3,34.9,29.72,NW,325,0.0,0.0,84,0.00,,CLR,0.00,0.00,VWS V14.01,2013-04-18 11:37:00,
2013-04-18 04:38:00,39.2,34.8,29.72,NW,325,0.0,0.0,84,0.00,,CLR,0.00,0.00,VWS V14.01,2013-04-18 11:38:00,
2013-04-18 04:40:00,39.2,34.8,29.72,NW,325,0.0,0.0,84,0.00,,CLR,0.00,0.00,VWS V14.01,2013-04-18 11:40:00,
2013-04-18 04:41:00,39.2,34.8,29.72,NW,325,0.0,0.0,84,0.00,,CLR,0.00,0.00,VWS V14.01,2013-04-18 11:41:00,
2013-04-18 04:42:00,39.1,34.7,29.72,NW,325,0.0,0.0,84,0.00,,CLR,0.00,0.00,VWS V14.01,2013-04-18 11:42:00,
2013-04-18 04:43:00,39.1,35.0,29.72,NW,325,0.0,0.0,85,0.00,,CLR,0.00,0.00,VWS V14.01,2013-04-18 11:43:00,
2013-04-18 04:46:00,39.0,34.9,29.72,NW,325,0.0,1.0,85,0.00,,CLR,0.00,0.00,VWS V14.01,2013-04-18 11:46:00,
2013-04-18 04:47:00,39.0,34.9,29.72,NW,325,0.0,1.0,85,0.00,,CLR,0.00,0.00,VWS V14.01,2013-04-18 11:47:00,
2013-04-18 04:48:00,39.0,34.9,29.72,NW,325,0.0,1.0,85,0.00,,CLR,0.00,0.00,VWS V14.01,2013-04-18 11:48:00,
2013-04-18 04:50:00,39.0,34.9,29.72,NW,325,0.0,1.0,85,0.00,,CLR,0.00,0.00,VWS V14.01,2013-04-18 11:50:00,
2013-04-18 04:52:00,38.9,34.8,29.72,NW,325,0.0,0.0,85,0.00,,CLR,0.00,0.00,VWS V14.01,2013-04-18 11:52:00,
2013-04-18 04:53:00,38.9,34.8,29.72,NW,325,0.0,0.0,85,0.00,,CLR,0.00,0.00,VWS V14.01,2013-04-18 11:53:00,
2013-04-18 04:54:00,38.9,34.8,29.72,NW,325,0.0,0.0,85,0.00,,CLR,0.00,0.00,VWS V14.01,2013-04-18 11:54:00,
2013-04-18 04:57:00,38.9,34.8,29.72,NW,325,0.0,0.0,85,0.00,,CLR,0.00,0.00,VWS V14.01,2013-04-18 11:57:00,
2013-04-18 04:58:00,38.9,34.8,29.72,NW,325,1.0,1.0,85,0.00,,CLR,0.00,0.00,VWS V14.01,2013-04-18 11:58:00,
2013-04-18 04:59:00,38.8,34.7,29.72,NW,325,0.0,1.0,85,0.00,,CLR,0.00,0.00,VWS V14.01,2013-04-18 11:59:00,
2013-04-18 05:00:00,38.8,34.7,29.72,NW,325,0.0,1.0,85,0.00,,CLR,0.00,0.00,VWS V14.01,2013-04-18 12:00:00,
2013-04-18 05:02:00,38.8,34.7,29.72,NW,325,0.0,0.0,85,0.00,,CLR,0.00,0.00,VWS V14.01,2013-04-18 12:02:00,
2013-04-18 05:03:00,38.8,34.7,29.72,NW,325,0.0,0.0,85,0.00,,CLR,0.00,0.00,VWS V14.01,2013-04-18 12:03:00,
2013-04-18 05:04:00,38.8,34.7,29.72,NW,325,0.0,0.0,85,0.00,,CLR,0.00,0.00,VWS V14.01,2013-04-18 12:04:00,
2013-04-18 05:07:00,38.7,34.6,29.72,NW,325,0.0,0.0,85,0.00,,CLR,0.00,0.00,VWS V14.01,2013-04-18 12:07:00,
2013-04-18 05:09:00,38.7,34.6,29.72,NW,325,0.0,0.0,85,0.00,,CLR,0.00,0.00,VWS V14.01,2013-04-18 12:09:00,
2013-04-18 05:10:00,38.7,34.6,29.72,NW,325,0.0,0.0,85,0.00,,CLR,0.00,0.00,VWS V14.01,2013-04-18 12:10:00,
2013-04-18 05:12:00,38.7,34.6,29.72,NW,325,0.0,0.0,85,0.00,,CLR,0.00,0.00,VWS V14.01,2013-04-18 12:12:00,
2013-04-18 05:14:00,38.7,34.6,29.72,NW,325,0.0,0.0,85,0.00,,CLR,0.00,0.00,VWS V14.01,2013-04-18 12:14:00,
2013-04-18 05:17:00,38.6,34.5,29.72,NW,325,0.0,0.0,85,0.00,,CLR,0.00,0.00,VWS V14.01,2013-04-18 12:17:00,
2013-04-18 05:18:00,38.6,34.5,29.72,NW,325,0.0,0.0,85,0.00,,CLR,0.00,0.00,VWS V14.01,2013-04-18 12:18:00,
2013-04-18 05:19:00,38.5,34.4,29.72,NW,325,0.0,0.0,85,0.00,,CLR,0.00,0.00,VWS V14.01,2013-04-18 12:19:00,
2013-04-18 05:20:00,38.5,34.4,29.72,NW,325,1.0,1.0,85,0.00,,CLR,0.00,0.00,VWS V14.01,2013-04-18 12:20:00,
2013-04-18 05:22:00,38.4,34.6,29.72,NW,325,0.0,1.0,86,0.00,,CLR,0.00,0.00,VWS V14.01,2013-04-18 12:22:00,
2013-04-18 05:23:00,38.4,34.6,29.72,NW,325,0.0,1.0,86,0.00,,CLR,0.00,0.00,VWS V14.01,2013-04-18 12:23:00,
2013-04-18 05:24:00,38.4,34.6,29.72,NW,325,0.0,1.0,86,0.00,,CLR,0.00,0.00,VWS V14.01,2013-04-18 12:24:00,
2013-04-18 05:25:00,38.4,34.6,29.72,NW,325,0.0,1.0,86,0.00,,CLR,0.00,0.00,VWS V14.01,2013-04-18 12:25:00,
2013-04-18 05:27:00,38.3,34.5,29.72,NW,325,0.0,1.0,86,0.00,,CLR,0.00,0.00,VWS V14.01,2013-04-18 12:27:00,
2013-04-18 05:28:00,38.3,34.5,29.72,NW,325,0.0,1.0,86,0.00,,CLR,0.00,0.00,VWS V14.01,2013-04-18 12:28:00,
2013-04-18 05:29:00,38.3,34.5,29.72,NW,325,0.0,1.0,86,0.00,,CLR,0.00,0.00,VWS V14.01,2013-04-18 12:29:00,
2013-04-18 05:30:00,38.3,34.5,29.72,NW,325,0.0,0.0,86,0.00,,CLR,0.00,0.00,VWS V14.01,2013-04-18 12:30:00,
2013-04-18 05:32:00,38.3,34.5,29.72,NW,325,0.0,1.0,86,0.00,,CLR,0.00,0.00,VWS V14.01,2013-04-18 12:32:00,
2013-04-18 05:33:00,38.3,34.5,29.72,NW,325,0.0,1.0,86,0.00,,CLR,0.00,0.00,VWS V14.01,2013-04-18 12:33:00,
2013-04-18 05:34:00,38.2,34.4,29.72,NW,325,0.0,1.0,86,0.00,,CLR,0.00,0.00,VWS V14.01,2013-04-18 12:34:00,
2013-04-18 05:35:00,38.2,34.4,29.72,NW,325,0.0,1.0,86,0.00,,CLR,0.00,0.00,VWS V14.01,2013-04-18 12:35:00,
2013-04-18 05:37:00,38.3,34.5,29.72,NW,325,0.0,1.0,86,0.00,,CLR,0.00,0.00,VWS V14.01,2013-04-18 12:37:00,
2013-04-18 05:38:00,38.2,34.4,29.72,NW,325,0.0,1.0,86,0.00,,CLR,0.00,0.00,VWS V14.01,2013-04-18 12:38:00,
2013-04-18 05:39:00,38.3,34.5,29.72,NW,325,0.0,1.0,86,0.00,,CLR,0.00,0.00,VWS V14.01,2013-04-18 12:39:00,
2013-04-18 05:40:00,38.2,34.4,29.72,NW,325,0.0,0.0,86,0.00,,CLR,0.00,0.00,VWS V14.01,2013-04-18 12:40:00,
2013-04-18 05:43:00,38.3,34.5,29.72,NW,325,0.0,0.0,86,0.00,,CLR,0.00,0.00,VWS V14.01,2013-04-18 12:43:00,
2013-04-18 05:44:00,38.2,34.4,29.72,NW,325,0.0,0.0,86,0.00,,CLR,0.00,0.00,VWS V14.01,2013-04-18 12:44:00,
2013-04-18 05:45:00,38.2,34.4,29.72,NW,325,0.0,0.0,86,0.00,,CLR,0.00,0.00,VWS V14.01,2013-04-18 12:45:00,
2013-04-18 05:48:00,38.2,34.4,29.72,NW,325,0.0,1.0,86,0.00,,CLR,0.00,0.00,VWS V14.01,2013-04-18 12:48:00,
2013-04-18 05:49:00,38.2,34.4,29.72,NW,325,0.0,1.0,86,0.00,,CLR,0.00,0.00,VWS V14.01,2013-04-18 12:49:00,
2013-04-18 05:50:00,38.2,34.4,29.72,NW,325,0.0,0.0,86,0.00,,CLR,0.00,0.00,VWS V14.01,2013-04-18 12:50:00,
2013-04-18 05:53:00,38.2,34.4,29.72,NW,325,0.0,0.0,86,0.00,,CLR,0.00,0.00,VWS V14.01,2013-04-18 12:53:00,
2013-04-18 05:55:00,38.2,34.4,29.72,NW,325,0.0,0.0,86,0.00,,CLR,0.00,0.00,VWS V14.01,2013-04-18 12:55:00,
2013-04-18 05:58:00,38.1,34.3,29.72,NW,325,0.0,0.0,86,0.00,,CLR,0.00,0.00,VWS V14.01,2013-04-18 12:58:00,
2013-04-18 06:00:00,38.1,34.3,29.72,NW,325,0.0,0.0,86,0.00,,CLR,0.00,0.00,VWS V14.01,2013-04-18 13:00:00,
2013-04-18 06:01:00,38.1,34.3,29.72,NW,325,0.0,0.0,86,0.00,,CLR,0.00,0.00,VWS V14.01,2013-04-18 13:01:00,
2013-04-18 06:03:00,38.1,34.3,29.72,NW,325,0.0,1.0,86,0.00,,CLR,0.00,0.00,VWS V14.01,2013-04-18 13:03:00,
2013-04-18 06:05:00,38.0,34.5,29.72,NW,325,0.0,1.0,87,0.00,,CLR,0.00,0.00,VWS V14.01,2013-04-18 13:05:00,
2013-04-18 06:06:00,38.0,34.5,29.72,NW,325,0.0,1.0,87,0.00,,CLR,0.00,0.00,VWS V14.01,2013-04-18 13:06:00,
2013-04-18 06:08:00,38.0,34.5,29.72,NW,325,0.0,1.0,87,0.00,,CLR,0.00,0.00,VWS V14.01,2013-04-18 13:08:00,
2013-04-18 06:10:00,38.0,34.5,29.72,NW,325,0.0,1.0,87,0.00,,CLR,0.00,0.00,VWS V14.01,2013-04-18 13:10:00,
2013-04-18 06:11:00,38.0,34.5,29.72,NW,325,0.0,1.0,87,0.00,,CLR,0.00,0.00,VWS V14.01,2013-04-18 13:11:00,
2013-04-18 06:13:00,38.0,34.5,29.72,NW,325,0.0,1.0,87,0.00,,CLR,0.00,0.00,VWS V14.01,2013-04-18 13:13:00,
2013-04-18 06:15:00,37.9,34.4,29.73,NW,325,0.0,1.0,87,0.00,,CLR,0.00,0.00,VWS V14.01,2013-04-18 13:15:00,
2013-04-18 06:16:00,37.9,34.4,29.72,NW,325,0.0,1.0,87,0.00,,CLR,0.00,0.00,VWS V14.01,2013-04-18 13:16:00,
2013-04-18 06:18:00,37.9,34.4,29.73,NW,325,0.0,1.0,87,0.00,,CLR,0.00,0.00,VWS V14.01,2013-04-18 13:18:00,
2013-04-18 06:20:00,37.8,34.3,29.73,NW,325,1.0,1.0,87,0.00,,CLR,0.00,0.00,VWS V14.01,2013-04-18 13:20:00,
2013-04-18 06:22:00,37.8,34.3,29.73,NW,325,0.0,1.0,87,0.00,,CLR,0.00,0.00,VWS V14.01,2013-04-18 13:22:00,
2013-04-18 06:23:00,37.8,34.3,29.73,NW,325,0.0,1.0,87,0.00,,CLR,0.00,0.00,VWS V14.01,2013-04-18 13:23:00,
2013-04-18 06:24:00,37.8,34.3,29.73,NW,325,0.0,1.0,87,0.00,,CLR,0.00,0.00,VWS V14.01,2013-04-18 13:24:00,
2013-04-18 06:25:00,37.8,34.3,29.72,NW,325,0.0,1.0,87,0.00,,CLR,0.00,0.00,VWS V14.01,2013-04-18 13:25:00,
2013-04-18 06:27:00,37.8,34.3,29.73,NW,325,0.0,1.0,87,0.00,,CLR,0.00,0.00,VWS V14.01,2013-04-18 13:27:00,
2013-04-18 06:29:00,37.8,34.3,29.73,NW,325,0.0,1.0,87,0.00,,CLR,0.00,0.00,VWS V14.01,2013-04-18 13:29:00,
2013-04-18 06:30:00,37.7,34.2,29.73,NW,325,0.0,0.0,87,0.00,,CLR,0.00,5.00,VWS V14.01,2013-04-18 13:30:00,
2013-04-18 06:31:00,37.7,34.2,29.73,NW,325,0.0,0.0,87,0.00,,CLR,0.00,5.00,VWS V14.01,2013-04-18 13:31:00,
2013-04-18 06:32:00,37.7,34.2,29.73,NW,325,0.0,0.0,87,0.00,,CLR,0.00,5.00,VWS V14.01,2013-04-18 13:32:00,
2013-04-18 06:34:00,37.7,34.2,29.73,NW,325,0.0,0.0,87,0.00,,CLR,0.00,5.00,VWS V14.01,2013-04-18 13:34:00,
2013-04-18 06:35:00,37.7,34.2,29.73,NW,325,0.0,0.0,87,0.00,,CLR,0.00,7.00,VWS V14.01,2013-04-18 13:35:00,
2013-04-18 06:36:00,37.6,34.1,29.73,NW,325,0.0,0.0,87,0.00,,CLR,0.00,7.00,VWS V14.01,2013-04-18 13:36:00,
2013-04-18 06:37:00,37.6,34.1,29.73,NW,325,0.0,0.0,87,0.00,,CLR,0.00,7.00,VWS V14.01,2013-04-18 13:37:00,
2013-04-18 06:39:00,37.6,34.1,29.73,NW,325,0.0,0.0,87,0.00,,CLR,0.00,9.00,VWS V14.01,2013-04-18 13:39:00,
2013-04-18 06:40:00,37.6,34.1,29.73,NW,325,0.0,0.0,87,0.00,,CLR,0.00,9.00,VWS V14.01,2013-04-18 13:40:00,
2013-04-18 06:41:00,37.6,34.1,29.73,NW,325,0.0,0.0,87,0.00,,CLR,0.00,11.00,VWS V14.01,2013-04-18 13:41:00,
2013-04-18 06:42:00,37.5,34.0,29.73,NW,325,0.0,0.0,87,0.00,,CLR,0.00,11.00,VWS V14.01,2013-04-18 13:42:00,
2013-04-18 06:44:00,37.5,34.0,29.73,NW,325,0.0,0.0,87,0.00,,CLR,0.00,11.00,VWS V14.01,2013-04-18 13:44:00,
2013-04-18 06:45:00,37.6,34.1,29.73,NW,325,0.0,0.0,87,0.00,,CLR,0.00,11.00,VWS V14.01,2013-04-18 13:45:00,
2013-04-18 06:46:00,37.5,34.0,29.73,NW,325,0.0,0.0,87,0.00,,CLR,0.00,12.00,VWS V14.01,2013-04-18 13:46:00,
2013-04-18 06:48:00,37.5,34.0,29.73,NW,325,0.0,0.0,87,0.00,,CLR,0.00,12.00,VWS V14.01,2013-04-18 13:48:00,
2013-04-18 06:49:00,37.6,34.1,29.74,NW,325,0.0,0.0,87,0.00,,CLR,0.00,12.00,VWS V14.01,2013-04-18 13:49:00,
2013-04-18 06:50:00,37.6,34.1,29.74,NW,325,0.0,0.0,87,0.00,,CLR,0.00,14.00,VWS V14.01,2013-04-18 13:50:00,
2013-04-18 06:51:00,37.6,34.1,29.74,NW,325,0.0,0.0,87,0.00,,CLR,0.00,14.00,VWS V14.01,2013-04-18 13:51:00,
2013-04-18 06:52:00,37.6,34.1,29.74,NW,325,1.0,1.0,87,0.00,,CLR,0.00,14.00,VWS V14.01,2013-04-18 13:52:00,
2013-04-18 06:53:00,37.6,34.4,29.74,NW,325,0.0,1.0,88,0.00,,CLR,0.00,14.00,VWS V14.01,2013-04-18 13:53:00,
2013-04-18 06:54:00,37.6,34.4,29.74,NW,325,0.0,1.0,88,0.00,,CLR,0.00,16.00,VWS V14.01,2013-04-18 13:54:00,
2013-04-18 06:55:00,37.7,34.5,29.74,NW,325,0.0,2.0,88,0.00,,CLR,0.00,16.00,VWS V14.01,2013-04-18 13:55:00,
2013-04-18 06:56:00,37.7,34.5,29.74,NW,325,0.0,2.0,88,0.00,,CLR,0.00,16.00,VWS V14.01,2013-04-18 13:56:00,
2013-04-18 06:57:00,37.7,34.5,29.74,NW,325,0.0,2.0,88,0.00,,CLR,0.00,16.00,VWS V14.01,2013-04-18 13:57:00,
2013-04-18 06:58:00,37.7,34.5,29.73,NW,325,0.0,2.0,88,0.00,,CLR,0.00,16.00,VWS V14.01,2013-04-18 13:58:00,
2013-04-18 06:59:00,37.7,34.5,29.73,NW,325,1.0,2.0,88,0.00,,CLR,0.00,18.00,VWS V14.01,2013-04-18 13:59:00,
2013-04-18 07:00:00,37.7,34.5,29.73,NW,325,1.0,2.0,88,0.00,,CLR,0.00,18.00,VWS V14.01,2013-04-18 14:00:00,
2013-04-18 07:01:00,37.8,34.6,29.73,NW,325,0.0,2.0,88,0.00,,CLR,0.00,18.00,VWS V14.01,2013-04-18 14:01:00,
2013-04-18 07:02:00,37.8,34.3,29.73,NW,325,0.0,2.0,87,0.00,,CLR,0.00,18.00,VWS V14.01,2013-04-18 14:02:00,
2013-04-18 07:03:00,37.8,34.6,29.74,NW,325,0.0,2.0,88,0.00,,CLR,0.00,19.00,VWS V14.01,2013-04-18 14:03:00,
2013-04-18 07:04:00,37.8,34.3,29.73,NW,325,0.0,2.0,87,0.00,,CLR,0.00,19.00,VWS V14.01,2013-04-18 14:04:00,
2013-04-18 07:06:00,37.8,34.6,29.74,NW,325,0.0,2.0,88,0.00,,CLR,0.00,19.00,VWS V14.01,2013-04-18 14:06:00,
2013-04-18 07:07:00,37.9,34.7,29.74,NW,325,0.0,2.0,88,0.00,,CLR,0.00,19.00,VWS V14.01,2013-04-18 14:07:00,
2013-04-18 07:08:00,37.9,34.4,29.74,NW,325,0.0,2.0,87,0.00,,CLR,0.00,21.00,VWS V14.01,2013-04-18 14:08:00,
2013-04-18 07:10:00,37.9,34.4,29.74,NW,325,0.0,2.0,87,0.00,,CLR,0.00,21.00,VWS V14.01,2013-04-18 14:10:00,
2013-04-18 07:11:00,38.0,34.5,29.74,NW,325,0.0,0.0,87,0.00,,CLR,0.00,23.00,VWS V14.01,2013-04-18 14:11:00,
2013-04-18 07:12:00,38.0,34.5,29.74,NW,325,0.0,0.0,87,0.00,,CLR,0.00,23.00,VWS V14.01,2013-04-18 14:12:00,
2013-04-18 07:13:00,38.0,34.5,29.74,NW,325,0.0,3.0,87,0.00,,CLR,0.00,23.00,VWS V14.01,2013-04-18 14:13:00,
2013-04-18 07:15:00,38.1,34.6,29.74,NW,325,0.0,3.0,87,0.00,,CLR,0.00,23.00,VWS V14.01,2013-04-18 14:15:00,
2013-04-18 07:16:00,38.2,34.7,29.74,NW,325,0.0,3.0,87,0.00,,CLR,0.00,25.00,VWS V14.01,2013-04-18 14:16:00,
2013-04-18 07:17:00,38.2,34.7,29.74,NW,325,0.0,3.0,87,0.00,,CLR,0.00,25.00,VWS V14.01,2013-04-18 14:17:00,
2013-04-18 07:18:00,38.2,34.7,29.74,NW,325,0.0,3.0,87,0.00,,CLR,0.00,25.00,VWS V14.01,2013-04-18 14:18:00,
2013-04-18 07:20:00,38.3,34.8,29.74,NW,325,0.0,0.0,87,0.00,,CLR,0.00,25.00,VWS V14.01,2013-04-18 14:20:00,
2013-04-18 07:22:00,38.3,35.1,29.74,NW,325,0.0,0.0,88,0.00,,CLR,0.00,25.00,VWS V14.01,2013-04-18 14:22:00,
2013-04-18 07:23:00,38.4,35.2,29.74,NW,325,0.0,1.0,88,0.00,,CLR,0.00,26.00,VWS V14.01,2013-04-18 14:23:00,
2013-04-18 07:25:00,38.5,35.3,29.74,NW,325,0.0,1.0,88,0.00,,CLR,0.00,26.00,VWS V14.01,2013-04-18 14:25:00,
2013-04-18 07:27:00,38.6,35.4,29.74,NW,325,0.0,1.0,88,0.00,,CLR,0.00,26.00,VWS V14.01,2013-04-18 14:27:00,
2013-04-18 07:28:00,38.8,35.3,29.74,NW,325,1.0,1.0,87,0.00,,CLR,0.00,26.00,VWS V14.01,2013-04-18 14:28:00,
2013-04-18 07:30:00,38.9,35.4,29.74,NW,325,0.0,0.0,87,0.00,,CLR,0.00,28.00,VWS V14.01,2013-04-18 14:30:00,
2013-04-18 07:32:00,39.1,35.6,29.74,NW,325,0.0,0.0,87,0.00,,CLR,0.00,28.00,VWS V14.01,2013-04-18 14:32:00,
2013-04-18 07:34:00,39.3,35.5,29.74,NW,325,0.0,1.0,86,0.00,,CLR,0.00,28.00,VWS V14.01,2013-04-18 14:34:00,
2013-04-18 07:35:00,39.4,35.6,29.74,NW,325,0.0,1.0,86,0.00,,CLR,0.00,28.00,VWS V14.01,2013-04-18 14:35:00,
2013-04-18 07:37:00,39.5,35.7,29.74,NW,325,0.0,1.0,86,0.00,,CLR,0.00,28.00,VWS V14.01,2013-04-18 14:37:00,
2013-04-18 07:38:00,39.6,35.8,29.74,NW,325,0.0,1.0,86,0.00,,CLR,0.00,28.00,VWS V14.01,2013-04-18 14:38:00,
2013-04-18 07:39:00,39.6,35.8,29.74,NW,325,0.0,1.0,86,0.00,,CLR,0.00,30.00,VWS V14.01,2013-04-18 14:39:00,
2013-04-18 07:40:00,39.7,35.6,29.74,NW,325,0.0,0.0,85,0.00,,CLR,0.00,30.00,VWS V14.01,2013-04-18 14:40:00,
2013-04-18 07:42:00,39.8,35.7,29.74,NW,325,0.0,0.0,85,0.00,,CLR,0.00,30.00,VWS V14.01,2013-04-18 14:42:00,
2013-04-18 07:43:00,39.9,35.8,29.74,NW,325,0.0,1.0,85,0.00,,CLR,0.00,30.00,VWS V14.01,2013-04-18 14:43:00,
2013-04-18 07:44:00,40.0,35.9,29.74,NW,325,0.0,1.0,85,0.00,,CLR,0.00,30.00,VWS V14.01,2013-04-18 14:44:00,
2013-04-18 07:45:00,40.0,35.6,29.75,NW,325,0.0,1.0,84,0.00,,CLR,0.00,30.00,VWS V14.01,2013-04-18 14:45:00,
2013-04-18 07:47:00,40.1,35.7,29.75,NW,325,0.0,1.0,84,0.00,,CLR,0.00,30.00,VWS V14.01,2013-04-18 14:47:00,
2013-04-18 07:48:00,40.2,35.8,29.75,NW,325,0.0,1.0,84,0.00,,CLR,0.00,30.00,VWS V14.01,2013-04-18 14:48:00,
2013-04-18 07:49:00,40.3,35.9,29.74,NW,325,0.0,1.0,84,0.00,,CLR,0.00,32.00,VWS V14.01,2013-04-18 14:49:00,
2013-04-18 07:50:00,40.3,35.9,29.74,NW,325,0.0,1.0,84,0.00,,CLR,0.00,32.00,VWS V14.01,2013-04-18 14:50:00,
2013-04-18 07:51:00,40.4,35.7,29.74,NW,325,0.0,0.0,83,0.00,,CLR,0.00,32.00,VWS V14.01,2013-04-18 14:51:00,
2013-04-18 07:52:00,40.5,35.8,29.74,NW,325,0.0,0.0,83,0.00,,CLR,0.00,32.00,VWS V14.01,2013-04-18 14:52:00,
2013-04-18 07:53:00,40.5,35.8,29.75,NW,325,0.0,0.0,83,0.00,,CLR,0.00,32.00,VWS V14.01,2013-04-18 14:53:00,
2013-04-18 07:55:00,40.6,35.8,29.75,NW,325,0.0,0.0,83,0.00,,CLR,0.00,32.00,VWS V14.01,2013-04-18 14:55:00,
2013-04-18 07:56:00,40.8,36.0,29.74,NW,325,0.0,0.0,83,0.00,,CLR,0.00,32.00,VWS V14.01,2013-04-18 14:56:00,
2013-04-18 07:57:00,41.0,36.2,29.75,NW,325,0.0,0.0,83,0.00,,CLR,0.00,32.00,VWS V14.01,2013-04-18 14:57:00,
2013-04-18 07:58:00,41.0,36.2,29.75,NW,325,0.0,0.0,83,0.00,,CLR,0.00,32.00,VWS V14.01,2013-04-18 14:58:00,
2013-04-18 08:00:00,41.2,36.1,29.75,NW,325,0.0,0.0,82,0.00,,CLR,0.00,33.00,VWS V14.01,2013-04-18 15:00:00,
2013-04-18 08:01:00,41.3,36.2,29.75,NW,325,0.0,0.0,82,0.00,,CLR,0.00,33.00,VWS V14.01,2013-04-18 15:01:00,
2013-04-18 08:02:00,41.5,36.1,29.75,NW,325,0.0,0.0,81,0.00,,CLR,0.00,33.00,VWS V14.01,2013-04-18 15:02:00,
2013-04-18 08:03:00,41.6,36.2,29.75,NW,325,0.0,0.0,81,0.00,,CLR,0.00,33.00,VWS V14.01,2013-04-18 15:03:00,
2013-04-18 08:05:00,41.9,36.5,29.75,NW,325,0.0,0.0,81,0.00,,CLR,0.00,33.00,VWS V14.01,2013-04-18 15:05:00,
2013-04-18 08:06:00,42.0,36.6,29.75,NW,325,0.0,0.0,81,0.00,,CLR,0.00,33.00,VWS V14.01,2013-04-18 15:06:00,
2013-04-18 08:07:00,42.2,36.8,29.75,NW,325,0.0,0.0,81,0.00,,CLR,0.00,33.00,VWS V14.01,2013-04-18 15:07:00,
2013-04-18 08:08:00,42.2,36.5,29.75,NW,325,0.0,0.0,80,0.00,,CLR,0.00,33.00,VWS V14.01,2013-04-18 15:08:00,
2013-04-18 08:10:00,42.5,37.1,29.75,NW,325,0.0,0.0,81,0.00,,CLR,0.00,35.00,VWS V14.01,2013-04-18 15:10:00,
2013-04-18 08:11:00,42.6,36.9,29.75,NW,325,0.0,0.0,80,0.00,,CLR,0.00,35.00,VWS V14.01,2013-04-18 15:11:00,
2013-04-18 08:13:00,42.8,36.8,29.75,NW,325,0.0,1.0,79,0.00,,CLR,0.00,35.00,VWS V14.01,2013-04-18 15:13:00,
2013-04-18 08:15:00,43.2,37.5,29.75,NW,325,0.0,1.0,80,0.00,,CLR,0.00,35.00,VWS V14.01,2013-04-18 15:15:00,
2013-04-18 08:16:00,43.3,37.6,29.75,NW,325,0.0,1.0,80,0.00,,CLR,0.00,35.00,VWS V14.01,2013-04-18 15:16:00,
2013-04-18 08:18:00,43.5,37.4,29.75,NW,325,0.0,1.0,79,0.00,,CLR,0.00,35.00,VWS V14.01,2013-04-18 15:18:00,
2013-04-18 08:20:00,43.8,37.4,29.75,NW,325,0.0,0.0,78,0.00,,CLR,0.00,35.00,VWS V14.01,2013-04-18 15:20:00,
2013-04-18 08:21:00,43.9,37.2,29.75,NW,325,0.0,0.0,77,0.00,,CLR,0.00,35.00,VWS V14.01,2013-04-18 15:21:00,
2013-04-18 08:23:00,44.2,37.1,29.75,NW,325,0.0,1.0,76,0.00,,CLR,0.00,39.00,VWS V14.01,2013-04-18 15:23:00,
2013-04-18 08:26:00,44.6,37.5,29.75,NW,325,0.0,1.0,76,0.00,,CLR,0.00,37.00,VWS V14.01,2013-04-18 15:26:00,
2013-04-18 08:28:00,44.9,37.5,29.75,NW,325,0.0,1.0,75,0.00,,CLR,0.00,37.00,VWS V14.01,2013-04-18 15:28:00,
2013-04-18 08:30:00,45.0,37.6,29.75,NW,325,0.0,1.0,75,0.00,,CLR,0.00,40.00,VWS V14.01,2013-04-18 15:30:00,
2013-04-18 08:31:00,45.2,37.8,29.75,NW,325,0.0,0.0,75,0.00,,CLR,0.00,40.00,VWS V14.01,2013-04-18 15:31:00,
2013-04-18 08:33:00,45.5,38.4,29.75,NW,325,0.0,0.0,76,0.00,,CLR,0.00,76.00,VWS V14.01,2013-04-18 15:33:00,
2013-04-18 08:34:00,45.5,38.0,29.75,NW,325,0.0,0.0,75,0.00,,CLR,0.00,76.00,VWS V14.01,2013-04-18 15:34:00,
2013-04-18 08:36:00,45.9,38.4,29.75,NW,325,0.0,0.0,75,0.00,,CLR,0.00,67.00,VWS V14.01,2013-04-18 15:36:00,
2013-04-18 08:38:00,46.2,39.1,29.75,NW,325,0.0,0.0,76,0.00,,CLR,0.00,79.00,VWS V14.01,2013-04-18 15:38:00,
2013-04-18 08:39:00,46.4,38.9,29.75,NW,325,0.0,0.0,75,0.00,,CLR,0.00,51.00,VWS V14.01,2013-04-18 15:39:00,
2013-04-18 08:40:00,46.5,38.7,29.75,NW,325,0.0,0.0,74,0.00,,CLR,0.00,51.00,VWS V14.01,2013-04-18 15:40:00,
2013-04-18 08:41:00,46.8,39.0,29.75,NW,325,0.0,0.0,74,0.00,,CLR,0.00,65.00,VWS V14.01,2013-04-18 15:41:00,
2013-04-18 08:42:00,46.9,38.4,29.75,NW,325,0.0,0.0,72,0.00,,CLR,0.00,65.00,VWS V14.01,2013-04-18 15:42:00,
2013-04-18 08:43:00,47.2,38.7,29.75,NW,325,0.0,0.0,72,0.00,,CLR,0.00,369.00,VWS V14.01,2013-04-18 15:43:00,
2013-04-18 08:44:00,47.3,38.7,29.75,NW,325,0.0,0.0,72,0.00,,CLR,0.00,369.00,VWS V14.01,2013-04-18 15:44:00,
2013-04-18 08:46:00,47.7,39.1,29.75,NW,325,0.0,0.0,72,0.00,,CLR,0.00,376.00,VWS V14.01,2013-04-18 15:46:00,
2013-04-18 08:47:00,47.9,39.3,29.75,NW,325,0.0,0.0,72,0.00,,CLR,0.00,378.00,VWS V14.01,2013-04-18 15:47:00,
2013-04-18 08:49:00,48.2,39.2,29.75,NW,325,0.0,0.0,71,0.00,,CLR,0.00,383.00,VWS V14.01,2013-04-18 15:49:00,
2013-04-18 08:50:00,48.3,39.3,29.75,NW,325,0.0,0.0,71,0.00,,CLR,0.00,387.00,VWS V14.01,2013-04-18 15:50:00,
2013-04-18 08:51:00,48.6,39.3,29.75,NW,325,0.0,0.0,70,0.00,,CLR,0.00,390.00,VWS V14.01,2013-04-18 15:51:00,
2013-04-18 08:52:00,48.8,39.5,29.75,NW,325,0.0,0.0,70,0.00,,CLR,0.00,394.00,VWS V14.01,2013-04-18 15:52:00,
2013-04-18 08:54:00,49.2,39.8,29.75,NW,325,0.0,0.0,70,0.00,,CLR,0.00,401.00,VWS V14.01,2013-04-18 15:54:00,
2013-04-18 08:55:00,49.5,40.1,29.75,NW,325,0.0,0.0,70,0.00,,CLR,0.00,403.00,VWS V14.01,2013-04-18 15:55:00,
2013-04-18 08:56:00,49.8,40.0,29.75,NW,325,0.0,0.0,69,0.00,,CLR,0.00,410.00,VWS V14.01,2013-04-18 15:56:00,
2013-04-18 08:57:00,50.0,40.2,29.75,NW,325,0.0,0.0,69,0.00,,CLR,0.00,411.00,VWS V14.01,2013-04-18 15:57:00,
2013-04-18 08:59:00,50.4,39.9,29.75,NW,325,0.0,0.0,67,0.00,,CLR,0.00,418.00,VWS V14.01,2013-04-18 15:59:00,
2013-04-18 09:00:00,50.6,40.4,29.75,NW,325,0.0,0.0,68,0.00,,CLR,0.00,424.00,VWS V14.01,2013-04-18 16:00:00,
2013-04-18 09:02:00,51.0,40.4,29.75,NW,325,0.0,0.0,67,0.00,,CLR,0.00,427.00,VWS V14.01,2013-04-18 16:02:00,
2013-04-18 09:04:00,51.6,40.2,29.75,NW,325,0.0,1.0,65,0.00,,CLR,0.00,438.00,VWS V14.01,2013-04-18 16:04:00,
2013-04-18 09:05:00,51.6,40.2,29.75,NW,325,0.0,1.0,65,0.00,,CLR,0.00,438.00,VWS V14.01,2013-04-18 16:05:00,
2013-04-18 09:06:00,51.8,40.8,29.75,NW,325,0.0,1.0,66,0.00,,CLR,0.00,439.00,VWS V14.01,2013-04-18 16:06:00,
2013-04-18 09:07:00,52.0,41.0,29.75,NW,325,0.0,1.0,66,0.00,,CLR,0.00,443.00,VWS V14.01,2013-04-18 16:07:00,
2013-04-18 09:10:00,52.6,41.2,29.75,NW,325,0.0,1.0,65,0.00,,CLR,0.00,454.00,VWS V14.01,2013-04-18 16:10:00,
2013-04-18 09:11:00,53.0,41.6,29.75,NW,325,0.0,1.0,65,0.00,,CLR,0.00,461.00,VWS V14.01,2013-04-18 16:11:00,
2013-04-18 09:12:00,53.1,41.7,29.75,NW,325,1.0,1.0,65,0.00,,CLR,0.00,461.00,VWS V14.01,2013-04-18 16:12:00,
2013-04-18 09:15:00,53.7,41.8,29.75,NW,325,1.0,1.0,64,0.00,,CLR,0.00,473.00,VWS V14.01,2013-04-18 16:15:00,
2013-04-18 09:16:00,54.0,42.1,29.75,NW,325,0.0,1.0,64,0.00,,CLR,0.00,475.00,VWS V14.01,2013-04-18 16:16:00,
2013-04-18 09:17:00,54.3,42.4,29.75,NW,325,0.0,1.0,64,0.00,,CLR,0.00,476.00,VWS V14.01,2013-04-18 16:17:00,
2013-04-18 09:20:00,55.0,43.1,29.74,NW,325,0.0,0.0,64,0.00,,CLR,0.00,485.00,VWS V14.01,2013-04-18 16:20:00,
2013-04-18 09:21:00,55.3,42.9,29.75,NW,325,0.0,0.0,63,0.00,,CLR,0.00,490.00,VWS V14.01,2013-04-18 16:21:00,
2013-04-18 09:22:00,55.4,42.6,29.75,NW,325,0.0,0.0,62,0.00,,CLR,0.00,494.00,VWS V14.01,2013-04-18 16:22:00,
2013-04-18 09:25:00,56.2,43.0,29.74,NW,325,0.0,1.0,61,0.00,,CLR,0.00,504.00,VWS V14.01,2013-04-18 16:25:00,
2013-04-18 09:26:00,56.6,41.6,29.74,NW,325,0.0,1.0,57,0.00,,CLR,0.00,508.00,VWS V14.01,2013-04-18 16:26:00,
2013-04-18 09:27:00,56.7,41.7,29.75,NW,325,0.0,1.0,57,0.00,,CLR,0.00,510.00,VWS V14.01,2013-04-18 16:27:00,
2013-04-18 09:28:00,56.9,41.8,29.74,NW,325,0.0,1.0,57,0.00,,CLR,0.00,513.00,VWS V14.01,2013-04-18 16:28:00,
2013-04-18 09:30:00,57.5,41.9,29.74,NW,325,0.0,0.0,56,0.00,,CLR,0.00,520.00,VWS V14.01,2013-04-18 16:30:00,
2013-04-18 09:32:00,57.8,41.3,29.74,NW,325,1.0,1.0,54,0.00,,CLR,0.00,522.00,VWS V14.01,2013-04-18 16:32:00,
2013-04-18 09:33:00,58.1,42.0,29.74,NW,325,0.0,1.0,55,0.00,,CLR,0.00,529.00,VWS V14.01,2013-04-18 16:33:00,
2013-04-18 09:35:00,58.6,42.0,29.74,NW,325,0.0,1.0,54,0.00,,CLR,0.00,536.00,VWS V14.01,2013-04-18 16:35:00,
2013-04-18 09:37:00,58.9,41.8,29.74,NW,325,0.0,1.0,53,0.00,,CLR,0.00,538.00,VWS V14.01,2013-04-18 16:37:00,
2013-04-18 09:38:00,59.3,42.7,29.74,NW,325,0.0,1.0,54,0.00,,CLR,0.00,545.00,VWS V14.01,2013-04-18 16:38:00,
2013-04-18 09:40:00,59.7,43.0,29.74,NW,325,1.0,2.0,54,0.00,,CLR,0.00,552.00,VWS V14.01,2013-04-18 16:40:00,
2013-04-18 09:42:00,60.0,40.8,29.74,NW,325,0.0,2.0,49,0.00,,CLR,0.00,554.00,VWS V14.01,2013-04-18 16:42:00,
2013-04-18 09:43:00,60.2,41.0,29.74,NW,325,0.0,2.0,49,0.00,,CLR,0.00,557.00,VWS V14.01,2013-04-18 16:43:00,
2013-04-18 09:46:00,60.8,40.5,29.74,NW,325,0.0,2.0,47,0.00,,CLR,0.00,566.00,VWS V14.01,2013-04-18 16:46:00,
2013-04-18 09:47:00,61.0,40.7,29.74,NW,325,0.0,2.0,47,0.00,,CLR,0.00,570.00,VWS V14.01,2013-04-18 16:47:00,
2013-04-18 09:48:00,61.2,41.4,29.74,NW,325,0.0,2.0,48,0.00,,CLR,0.00,571.00,VWS V14.01,2013-04-18 16:48:00,
2013-04-18 09:49:00,61.3,41.5,29.74,NW,325,1.0,2.0,48,0.00,,CLR,0.00,573.00,VWS V14.01,2013-04-18 16:49:00,
2013-04-18 09:50:00,61.5,40.0,29.74,NW,325,1.0,2.0,45,0.00,,CLR,0.00,577.00,VWS V14.01,2013-04-18 16:50:00,
2013-04-18 09:52:00,61.9,39.8,29.74,WNW,297,0.0,3.0,44,0.00,,CLR,0.00,585.00,VWS V14.01,2013-04-18 16:52:00,
2013-04-18 09:53:00,62.2,37.6,29.74,WNW,297,0.0,3.0,40,0.00,,CLR,0.00,587.00,VWS V14.01,2013-04-18 16:53:00,
2013-04-18 09:54:00,62.3,38.3,29.74,WNW,297,0.0,3.0,41,0.00,,CLR,0.00,589.00,VWS V14.01,2013-04-18 16:54:00,
2013-04-18 09:57:00,63.1,38.4,29.74,North,355,0.0,5.0,40,0.00,,CLR,0.00,599.00,VWS V14.01,2013-04-18 16:57:00,
2013-04-18 09:58:00,63.4,38.7,29.74,NNW,341,0.0,5.0,40,0.00,,CLR,0.00,601.00,VWS V14.01,2013-04-18 16:58:00,
2013-04-18 09:59:00,63.4,38.7,29.74,WNW,283,0.0,5.0,40,0.00,,CLR,0.00,605.00,VWS V14.01,2013-04-18 16:59:00,
2013-04-18 10:00:00,63.6,36.9,29.74,WNW,284,1.0,5.0,37,0.00,,CLR,0.00,606.00,VWS V14.01,2013-04-18 17:00:00,
2013-04-18 10:02:00,64.3,37.5,29.74,North,351,0.0,4.0,37,0.00,,CLR,0.00,613.00,VWS V14.01,2013-04-18 17:02:00,
2013-04-18 10:03:00,64.7,37.2,29.74,West,278,4.0,4.0,36,0.00,,CLR,0.00,619.00,VWS V14.01,2013-04-18 17:03:00,
2013-04-18 10:04:00,64.9,37.3,29.74,West,281,1.0,4.0,36,0.00,,CLR,0.00,619.00,VWS V14.01,2013-04-18 17:04:00,
2013-04-18 10:07:00,65.3,37.0,29.74,WSW,241,0.0,7.0,35,0.00,,CLR,0.00,626.00,VWS V14.01,2013-04-18 17:07:00,
2013-04-18 10:08:00,65.4,37.1,29.74,WNW,287,0.0,7.0,35,0.00,,CLR,0.00,631.00,VWS V14.01,2013-04-18 17:08:00,
2013-04-18 10:09:00,65.5,37.2,29.74,WNW,287,0.0,7.0,35,0.00,,CLR,0.00,633.00,VWS V14.01,2013-04-18 17:09:00,
2013-04-18 10:10:00,65.6,38.0,29.74,WNW,287,0.0,7.0,36,0.00,,CLR,0.00,635.00,VWS V14.01,2013-04-18 17:10:00,
2013-04-18 10:12:00,66.0,35.3,29.74,West,272,4.0,4.0,32,0.00,,CLR,0.00,642.00,VWS V14.01,2013-04-18 17:12:00,
2013-04-18 10:13:00,66.1,35.4,29.74,NNW,338,0.0,4.0,32,0.00,,CLR,0.00,645.00,VWS V14.01,2013-04-18 17:13:00,
2013-04-18 10:14:00,66.2,35.5,29.74,NNW,331,0.0,4.0,32,0.00,,CLR,0.00,645.00,VWS V14.01,2013-04-18 17:14:00,
2013-04-18 10:17:00,66.7,35.9,29.74,NNW,337,0.0,6.0,32,0.00,,CLR,0.00,656.00,VWS V14.01,2013-04-18 17:17:00,
2013-04-18 10:19:00,66.9,34.5,29.74,ENE,76,1.0,6.0,30,0.00,,CLR,0.00,656.00,VWS V14.01,2013-04-18 17:19:00,
2013-04-18 10:20:00,67.1,34.7,29.74,West,263,1.0,6.0,30,0.00,,CLR,0.00,666.00,VWS V14.01,2013-04-18 17:20:00,
2013-04-18 10:23:00,67.4,34.1,29.74,West,269,1.0,6.0,29,0.00,,CLR,0.00,671.00,VWS V14.01,2013-04-18 17:23:00,
2013-04-18 10:24:00,67.4,34.1,29.75,NNW,335,6.0,6.0,29,0.00,,CLR,0.00,671.00,VWS V14.01,2013-04-18 17:24:00,
2013-04-18 10:28:00,68.0,34.6,29.75,West,281,0.0,6.0,29,0.00,,CLR,0.00,684.00,VWS V14.01,2013-04-18 17:28:00,
2013-04-18 10:29:00,68.2,35.6,29.74,North,360,2.0,6.0,30,0.00,,CLR,0.00,686.00,VWS V14.01,2013-04-18 17:29:00,
2013-04-18 10:30:00,68.3,34.8,29.75,NNE,13,3.0,4.0,29,0.00,,CLR,0.00,691.00,VWS V14.01,2013-04-18 17:30:00,
2013-04-18 10:33:00,68.4,34.0,29.74,WNW,284,10.0,10.0,28,0.00,,CLR,0.00,698.00,VWS V14.01,2013-04-18 17:33:00,
2013-04-18 10:34:00,68.3,33.1,29.74,NNW,344,0.0,10.0,27,0.00,,CLR,0.00,701.00,VWS V14.01,2013-04-18 17:34:00,
2013-04-18 10:35:00,68.3,34.0,29.75,NE,49,0.0,10.0,28,0.00,,CLR,0.00,701.00,VWS V14.01,2013-04-18 17:35:00,
2013-04-18 10:38:00,68.4,34.0,29.75,SW,234,5.0,10.0,28,0.00,,CLR,0.00,710.00,VWS V14.01,2013-04-18 17:38:00,
2013-04-18 10:39:00,68.4,33.1,29.74,ENE,59,9.0,10.0,27,0.00,,CLR,0.00,714.00,VWS V14.01,2013-04-18 17:39:00,
2013-04-18 10:40:00,68.3,34.0,29.75,NW,319,4.0,6.0,28,0.00,,CLR,0.00,714.00,VWS V14.01,2013-04-18 17:40:00,
2013-04-18 10:44:00,68.3,34.0,29.75,WNW,300,2.0,6.0,28,0.00,,CLR,0.00,721.00,VWS V14.01,2013-04-18 17:44:00,
2013-04-18 10:45:00,68.4,34.9,29.75,North,5,3.0,6.0,29,0.00,,CLR,0.00,722.00,VWS V14.01,2013-04-18 17:45:00,
2013-04-18 10:49:00,68.5,34.1,29.75,North,355,0.0,6.0,28,0.00,,CLR,0.00,737.00,VWS V14.01,2013-04-18 17:49:00,
2013-04-18 10:50:00,68.5,34.1,29.75,North,355,1.0,1.0,28,0.00,,CLR,0.00,737.00,VWS V14.01,2013-04-18 17:50:00,
2013-04-18 10:55:00,69.3,33.9,29.75,WNW,289,1.0,4.0,27,0.00,,CLR,0.00,745.00,VWS V14.01,2013-04-18 17:55:00,
2013-04-18 10:56:00,69.4,34.0,29.75,WNW,289,0.0,4.0,27,0.00,,CLR,0.00,747.00,VWS V14.01,2013-04-18 17:56:00,
2013-04-18 11:00:00,69.8,34.3,29.75,NNW,336,10.0,10.0,27,0.00,,CLR,0.00,758.00,VWS V14.01,2013-04-18 18:00:00,
2013-04-18 11:01:00,69.8,34.3,29.75,NNW,335,0.0,10.0,27,0.00,,CLR,0.00,758.00,VWS V14.01,2013-04-18 18:01:00,
2013-04-18 11:05:00,69.9,33.5,29.74,East,96,3.0,10.0,26,0.00,,CLR,0.00,765.00,VWS V14.01,2013-04-18 18:05:00,
2013-04-18 11:06:00,69.9,34.4,29.75,WNW,296,0.0,10.0,27,0.00,,CLR,0.00,766.00,VWS V14.01,2013-04-18 18:06:00,
2013-04-18 11:10:00,69.9,34.4,29.75,North,355,4.0,5.0,27,0.00,,CLR,0.00,775.00,VWS V14.01,2013-04-18 18:10:00,
2013-04-18 11:11:00,69.7,33.3,29.75,WNW,292,5.0,5.0,26,0.00,,CLR,0.00,780.00,VWS V14.01,2013-04-18 18:11:00,
2013-04-18 11:12:00,69.7,33.3,29.74,WSW,248,3.0,5.0,26,0.00,,CLR,0.00,782.00,VWS V14.01,2013-04-18 18:12:00,
2013-04-18 11:15:00,69.5,33.1,29.75,ENE,65,0.0,10.0,26,0.00,,CLR,0.00,788.00,VWS V14.01,2013-04-18 18:15:00,
2013-04-18 11:16:00,69.4,33.1,29.74,North,355,0.0,10.0,26,0.00,,CLR,0.00,788.00,VWS V14.01,2013-04-18 18:16:00,
2013-04-18 11:17:00,69.4,34.0,29.75,North,5,5.0,10.0,27,0.00,,CLR,0.00,793.00,VWS V14.01,2013-04-18 18:17:00,
2013-04-18 11:20:00,69.3,33.0,29.75,North,5,7.0,13.0,26,0.00,,CLR,0.00,796.00,VWS V14.01,2013-04-18 18:20:00,
2013-04-18 11:21:00,69.2,32.9,29.74,NNW,333,4.0,13.0,26,0.00,,CLR,0.00,798.00,VWS V14.01,2013-04-18 18:21:00,
2013-04-18 11:22:00,69.2,32.9,29.75,ENE,65,1.0,13.0,26,0.00,,CLR,0.00,798.00,VWS V14.01,2013-04-18 18:22:00,
2013-04-18 11:25:00,69.4,34.0,29.75,North,360,9.0,13.0,27,0.00,,CLR,0.00,805.00,VWS V14.01,2013-04-18 18:25:00,
2013-04-18 11:26:00,69.3,33.0,29.75,NNW,338,4.0,13.0,26,0.00,,CLR,0.00,807.00,VWS V14.01,2013-04-18 18:26:00,
2013-04-18 11:27:00,69.3,33.0,29.74,NNE,16,0.0,13.0,26,0.00,,CLR,0.00,807.00,VWS V14.01,2013-04-18 18:27:00,
2013-04-18 11:30:00,69.5,34.1,29.74,North,355,4.0,13.0,27,0.00,,CLR,0.00,814.00,VWS V14.01,2013-04-18 18:30:00,
2013-04-18 11:31:00,69.7,34.3,29.74,NE,35,0.0,7.0,27,0.00,,CLR,0.00,816.00,VWS V14.01,2013-04-18 18:31:00,
2013-04-18 11:32:00,69.7,35.2,29.74,NE,36,0.0,7.0,28,0.00,,CLR,0.00,817.00,VWS V14.01,2013-04-18 18:32:00,
2013-04-18 11:33:00,69.8,35.3,29.74,North,360,9.0,9.0,28,0.00,,CLR,0.00,819.00,VWS V14.01,2013-04-18 18:33:00,
2013-04-18 11:36:00,70.0,35.4,29.74,NNW,347,1.0,10.0,28,0.00,,CLR,0.00,823.00,VWS V14.01,2013-04-18 18:36:00,
2013-04-18 11:37:00,70.3,35.7,29.74,NNE,18,3.0,10.0,28,0.00,,CLR,0.00,823.00,VWS V14.01,2013-04-18 18:37:00,
2013-04-18 11:38:00,70.4,35.8,29.74,NNW,342,2.0,10.0,28,0.00,,CLR,0.00,826.00,VWS V14.01,2013-04-18 18:38:00,
2013-04-18 11:40:00,70.9,35.3,29.74,North,350,0.0,10.0,27,0.00,,CLR,0.00,830.00,VWS V14.01,2013-04-18 18:40:00,
2013-04-18 11:41:00,71.0,34.4,29.74,ENE,66,1.0,10.0,26,0.00,,CLR,0.00,828.00,VWS V14.01,2013-04-18 18:41:00,
2013-04-18 11:42:00,71.0,35.4,29.74,NNW,347,5.0,10.0,27,0.00,,CLR,0.00,831.00,VWS V14.01,2013-04-18 18:42:00,
2013-04-18 11:43:00,71.1,35.5,29.74,NW,309,2.0,10.0,27,0.00,,CLR,0.00,831.00,VWS V14.01,2013-04-18 18:43:00,
2013-04-18 11:46:00,71.4,35.7,29.74,NNW,339,7.0,10.0,27,0.00,,CLR,0.00,840.00,VWS V14.01,2013-04-18 18:46:00,
2013-04-18 11:47:00,71.4,34.8,29.74,North,5,2.0,10.0,26,0.00,,CLR,0.00,842.00,VWS V14.01,2013-04-18 18:47:00,
2013-04-18 11:48:00,71.3,35.6,29.74,North,9,5.0,10.0,27,0.00,,CLR,0.00,842.00,VWS V14.01,2013-04-18 18:48:00,
2013-04-18 11:50:00,71.3,36.5,29.74,ENE,57,0.0,10.0,28,0.00,,CLR,0.00,846.00,VWS V14.01,2013-04-18 18:50:00,
2013-04-18 11:52:00,71.5,36.7,29.74,WNW,302,0.0,2.0,28,0.00,,CLR,0.00,840.00,VWS V14.01,2013-04-18 18:52:00,
2013-04-18 11:53:00,71.7,37.8,29.74,South,172,0.0,2.0,29,0.00,,CLR,0.00,854.00,VWS V14.01,2013-04-18 18:53:00,
2013-04-18 11:57:00,72.2,36.4,29.74,NNW,345,4.0,9.0,27,0.00,,CLR,0.00,854.00,VWS V14.01,2013-04-18 18:57:00,
2013-04-18 11:58:00,72.2,35.4,29.74,North,9,3.0,9.0,26,0.00,,CLR,0.00,854.00,VWS V14.01,2013-04-18 18:58:00,
2013-04-18 12:00:00,72.2,36.4,29.73,East,84,0.0,9.0,27,0.00,,CLR,0.00,858.00,VWS V14.01,2013-04-18 19:00:00,
2013-04-18 12:02:00,71.9,37.1,29.74,North,355,3.0,7.0,28,0.00,,CLR,0.00,861.00,VWS V14.01,2013-04-18 19:02:00,
2013-04-18 12:03:00,71.8,36.0,29.74,NE,44,0.0,7.0,27,0.00,,CLR,0.00,861.00,VWS V14.01,2013-04-18 19:03:00,
2013-04-18 12:07:00,71.7,35.0,29.74,NW,318,5.0,10.0,26,0.00,,CLR,0.00,867.00,VWS V14.01,2013-04-18 19:07:00,
2013-04-18 12:08:00,71.7,36.0,29.74,North,11,2.0,10.0,27,0.00,,CLR,0.00,867.00,VWS V14.01,2013-04-18 19:08:00,
2013-04-18 12:09:00,71.8,35.1,29.74,North,360,4.0,10.0,26,0.00,,CLR,0.00,867.00,VWS V14.01,2013-04-18 19:09:00,
2013-04-18 12:10:00,71.8,37.0,29.73,ESE,107,3.0,10.0,28,0.00,,CLR,0.00,868.00,VWS V14.01,2013-04-18 19:10:00,
2013-04-18 12:13:00,72.0,36.2,29.74,NNW,329,0.0,6.0,27,0.00,,CLR,0.00,872.00,VWS V14.01,2013-04-18 19:13:00,
2013-04-18 12:14:00,72.2,37.3,29.73,North,355,0.0,6.0,28,0.00,,CLR,0.00,870.00,VWS V14.01,2013-04-18 19:14:00,
2013-04-18 12:18:00,72.8,36.9,29.73,SSE,164,0.0,6.0,27,0.00,,CLR,0.00,875.00,VWS V14.01,2013-04-18 19:18:00,
2013-04-18 12:19:00,72.9,37.0,29.74,South,187,0.0,6.0,27,0.00,,CLR,0.00,877.00,VWS V14.01,2013-04-18 19:19:00,
2013-04-18 12:20:00,73.0,36.1,29.74,SW,235,0.0,6.0,26,0.00,,CLR,0.00,882.00,VWS V14.01,2013-04-18 19:20:00,
2013-04-18 12:23:00,73.4,37.4,29.73,NW,325,0.0,7.0,27,0.00,,CLR,0.00,882.00,VWS V14.01,2013-04-18 19:23:00,
2013-04-18 12:24:00,73.5,36.5,29.73,NNW,327,0.0,7.0,26,0.00,,CLR,0.00,882.00,VWS V14.01,2013-04-18 19:24:00,
2013-04-18 12:28:00,73.8,35.8,29.73,NNW,347,0.0,7.0,25,0.00,,CLR,0.00,886.00,VWS V14.01,2013-04-18 19:28:00,
2013-04-18 12:29:00,73.9,35.9,29.73,North,355,2.0,7.0,25,0.00,,CLR,0.00,886.00,VWS V14.01,2013-04-18 19:29:00,
2013-04-18 12:30:00,73.8,35.8,29.73,North,360,4.0,7.0,25,0.00,,CLR,0.00,888.00,VWS V14.01,2013-04-18 19:30:00,
2013-04-18 12:33:00,73.4,37.4,29.73,North,5,1.0,9.0,27,0.00,,CLR,0.00,891.00,VWS V14.01,2013-04-18 19:33:00,
2013-04-18 12:34:00,73.3,36.4,29.73,NE,47,1.0,9.0,26,0.00,,CLR,0.00,891.00,VWS V14.01,2013-04-18 19:34:00,
2013-04-18 12:38:00,73.7,36.7,29.73,North,360,3.0,9.0,26,0.00,,CLR,0.00,893.00,VWS V14.01,2013-04-18 19:38:00,
2013-04-18 12:39:00,73.8,36.8,29.73,North,5,0.0,9.0,26,0.00,,CLR,0.00,889.00,VWS V14.01,2013-04-18 19:39:00,
2013-04-18 12:40:00,73.9,36.9,29.73,ENE,73,0.0,1.0,26,0.00,,CLR,0.00,896.00,VWS V14.01,2013-04-18 19:40:00,
2013-04-18 12:43:00,74.1,37.1,29.73,SE,144,1.0,7.0,26,0.00,,CLR,0.00,893.00,VWS V14.01,2013-04-18 19:43:00,
2013-04-18 12:44:00,74.0,35.0,29.73,North,5,1.0,7.0,24,0.00,,CLR,0.00,895.00,VWS V14.01,2013-04-18 19:44:00,
2013-04-18 12:45:00,74.0,36.0,29.73,ESE,111,4.0,9.0,25,0.00,,CLR,0.00,895.00,VWS V14.01,2013-04-18 19:45:00,
2013-04-18 12:49:00,73.4,34.5,29.72,East,94,1.0,10.0,24,0.00,,CLR,0.00,895.00,VWS V14.01,2013-04-18 19:49:00,
2013-04-18 12:50:00,73.4,35.5,29.72,WSW,255,3.0,3.0,25,0.00,,CLR,0.00,898.00,VWS V14.01,2013-04-18 19:50:00,
2013-04-18 12:54:00,73.2,34.3,29.72,North,5,2.0,8.0,24,0.00,,CLR,0.00,896.00,VWS V14.01,2013-04-18 19:54:00,
2013-04-18 12:55:00,73.2,34.3,29.72,North,350,6.0,8.0,24,0.00,,CLR,0.00,898.00,VWS V14.01,2013-04-18 19:55:00,
2013-04-18 12:59:00,73.4,35.5,29.72,North,9,6.0,8.0,25,0.00,,CLR,0.00,900.00,VWS V14.01,2013-04-18 19:59:00,
2013-04-18 13:00:00,73.4,35.5,29.72,NNW,341,3.0,7.0,25,0.00,,CLR,0.00,898.00,VWS V14.01,2013-04-18 20:00:00,
2013-04-18 13:04:00,73.6,33.5,29.72,NNW,341,2.0,9.0,23,0.00,,CLR,0.00,900.00,VWS V14.01,2013-04-18 20:04:00,
2013-04-18 13:05:00,73.7,33.6,29.72,NNE,12,1.0,9.0,23,0.00,,CLR,0.00,902.00,VWS V14.01,2013-04-18 20:05:00,
2013-04-18 13:06:00,73.8,34.8,29.72,ENE,78,3.0,9.0,24,0.00,,CLR,0.00,902.00,VWS V14.01,2013-04-18 20:06:00,
2013-04-18 13:09:00,73.7,34.7,29.72,North,349,3.0,12.0,24,0.00,,CLR,0.00,900.00,VWS V14.01,2013-04-18 20:09:00,
2013-04-18 13:10:00,73.7,34.7,29.72,North,360,1.0,1.0,24,0.00,,CLR,0.00,900.00,VWS V14.01,2013-04-18 20:10:00,
2013-04-18 13:11:00,73.7,33.6,29.72,ESE,115,1.0,6.0,23,0.00,,CLR,0.00,902.00,VWS V14.01,2013-04-18 20:11:00,
2013-04-18 13:14:00,73.7,33.6,29.72,North,355,4.0,9.0,23,0.00,,CLR,0.00,900.00,VWS V14.01,2013-04-18 20:14:00,
2013-04-18 13:15:00,73.7,33.6,29.72,North,10,3.0,9.0,23,0.00,,CLR,0.00,900.00,VWS V14.01,2013-04-18 20:15:00,
2013-04-18 13:17:00,73.8,34.8,29.72,ESE,111,2.0,9.0,24,0.00,,CLR,0.00,902.00,VWS V14.01,2013-04-18 20:17:00,
2013-04-18 13:19:00,73.9,34.9,29.72,NNE,17,1.0,9.0,24,0.00,,CLR,0.00,904.00,VWS V14.01,2013-04-18 20:19:00,
2013-04-18 13:20:00,73.9,34.9,29.72,NNE,17,0.0,2.0,24,0.00,,CLR,0.00,902.00,VWS V14.01,2013-04-18 20:20:00,
2013-04-18 13:21:00,73.9,33.8,29.72,West,259,0.0,2.0,23,0.00,,CLR,0.00,902.00,VWS V14.01,2013-04-18 20:21:00,
2013-04-18 13:22:00,74.0,33.9,29.72,North,350,3.0,3.0,23,0.00,,CLR,0.00,904.00,VWS V14.01,2013-04-18 20:22:00,
2013-04-18 13:25:00,74.1,34.0,29.72,NNE,29,1.0,8.0,23,0.00,,CLR,0.00,902.00,VWS V14.01,2013-04-18 20:25:00,
2013-04-18 13:26:00,74.1,35.0,29.72,NNW,344,4.0,8.0,24,0.00,,CLR,0.00,900.00,VWS V14.01,2013-04-18 20:26:00,
2013-04-18 13:27:00,74.0,32.8,29.72,NNW,345,3.0,8.0,22,0.00,,CLR,0.00,900.00,VWS V14.01,2013-04-18 20:27:00,
2013-04-18 13:30:00,73.9,31.5,29.72,North,355,0.0,9.0,21,0.00,,CLR,0.00,898.00,VWS V14.01,2013-04-18 20:30:00,
2013-04-18 13:31:00,73.9,31.5,29.72,NNE,15,3.0,10.0,21,0.00,,CLR,0.00,900.00,VWS V14.01,2013-04-18 20:31:00,
2013-04-18 13:32:00,73.6,31.3,29.72,NNW,347,6.0,10.0,21,0.00,,CLR,0.00,898.00,VWS V14.01,2013-04-18 20:32:00,
2013-04-18 13:35:00,73.5,34.5,29.71,NNE,24,2.0,10.0,24,0.00,,CLR,0.00,896.00,VWS V14.01,2013-04-18 20:35:00,
2013-04-18 13:36:00,73.5,34.5,29.71,NNE,26,0.0,10.0,24,0.00,,CLR,0.00,895.00,VWS V14.01,2013-04-18 20:36:00,
2013-04-18 13:37:00,73.5,33.5,29.72,NE,40,2.0,10.0,23,0.00,,CLR,0.00,898.00,VWS V14.01,2013-04-18 20:37:00,
2013-04-18 13:40:00,73.5,33.5,29.71,WSW,258,5.0,5.0,23,0.00,,CLR,0.00,900.00,VWS V14.01,2013-04-18 20:40:00,
2013-04-18 13:41:00,73.5,33.5,29.71,West,266,3.0,8.0,23,0.00,,CLR,0.00,896.00,VWS V14.01,2013-04-18 20:41:00,
2013-04-18 13:42:00,73.5,31.2,29.71,NNE,25,0.0,8.0,21,0.00,,CLR,0.00,895.00,VWS V14.01,2013-04-18 20:42:00,
2013-04-18 13:46:00,73.8,32.6,29.71,NE,35,4.0,8.0,22,0.00,,CLR,0.00,896.00,VWS V14.01,2013-04-18 20:46:00,
2013-04-18 13:47:00,73.8,31.5,29.71,NNW,341,11.0,11.0,21,0.00,,CLR,0.00,893.00,VWS V14.01,2013-04-18 20:47:00,
2013-04-18 13:50:00,73.7,32.5,29.71,East,94,2.0,11.0,22,0.00,,CLR,0.00,893.00,VWS V14.01,2013-04-18 20:50:00,
2013-04-18 13:51:00,73.7,31.4,29.71,NE,36,2.0,6.0,21,0.00,,CLR,0.00,891.00,VWS V14.01,2013-04-18 20:51:00,
2013-04-18 13:52:00,73.7,31.4,29.71,ENE,63,0.0,6.0,21,0.00,,CLR,0.00,889.00,VWS V14.01,2013-04-18 20:52:00,
2013-04-18 13:57:00,74.2,33.0,29.71,NW,314,1.0,6.0,22,0.00,,CLR,0.00,888.00,VWS V14.01,2013-04-18 20:57:00,
2013-04-18 14:00:00,74.6,33.3,29.71,NNW,346,1.0,6.0,22,0.00,,CLR,0.00,884.00,VWS V14.01,2013-04-18 21:00:00,
2013-04-18 14:02:00,74.9,32.4,29.71,NNE,23,5.0,9.0,21,0.00,,CLR,0.00,881.00,VWS V14.01,2013-04-18 21:02:00,
2013-04-18 14:03:00,75.0,32.5,29.71,NNW,336,3.0,9.0,21,0.00,,CLR,0.00,882.00,VWS V14.01,2013-04-18 21:03:00,
2013-04-18 14:07:00,75.2,31.4,29.71,NNE,15,0.0,9.0,20,0.00,,CLR,0.00,882.00,VWS V14.01,2013-04-18 21:07:00,
2013-04-18 14:08:00,75.3,33.9,29.71,NNE,30,1.0,10.0,22,0.00,,CLR,0.00,877.00,VWS V14.01,2013-04-18 21:08:00,
2013-04-18 14:10:00,75.4,32.8,29.71,North,360,4.0,10.0,21,0.00,,CLR,0.00,874.00,VWS V14.01,2013-04-18 21:10:00,
2013-04-18 14:12:00,75.4,32.8,29.71,NNE,24,1.0,10.0,21,0.00,,CLR,0.00,872.00,VWS V14.01,2013-04-18 21:12:00,
2013-04-18 14:13:00,75.4,32.8,29.71,NNW,332,0.0,10.0,21,0.00,,CLR,0.00,872.00,VWS V14.01,2013-04-18 21:13:00,
2013-04-18 14:17:00,75.1,34.8,29.71,North,355,7.0,11.0,23,0.00,,CLR,0.00,867.00,VWS V14.01,2013-04-18 21:17:00,
2013-04-18 14:18:00,75.1,33.7,29.71,North,355,2.0,11.0,22,0.00,,CLR,0.00,867.00,VWS V14.01,2013-04-18 21:18:00,
2013-04-18 14:20:00,74.9,35.7,29.71,NNW,333,0.0,11.0,24,0.00,,CLR,0.00,865.00,VWS V14.01,2013-04-18 21:20:00,
2013-04-18 14:22:00,75.3,33.9,29.71,NNE,15,2.0,5.0,22,0.00,,CLR,0.00,861.00,VWS V14.01,2013-04-18 21:22:00,
2013-04-18 14:23:00,75.3,33.9,29.71,North,355,1.0,5.0,22,0.00,,CLR,0.00,861.00,VWS V14.01,2013-04-18 21:23:00,
2013-04-18 14:24:00,75.2,32.6,29.70,North,5,5.0,9.0,21,0.00,,CLR,0.00,861.00,VWS V14.01,2013-04-18 21:24:00,
2013-04-18 14:28:00,75.1,32.5,29.70,North,11,10.0,12.0,21,0.00,,CLR,0.00,853.00,VWS V14.01,2013-04-18 21:28:00,
2013-04-18 14:29:00,75.0,33.6,29.70,North,349,2.0,12.0,22,0.00,,CLR,0.00,853.00,VWS V14.01,2013-04-18 21:29:00,
2013-04-18 14:30:00,74.9,32.4,29.70,NNE,30,2.0,12.0,21,0.00,,CLR,0.00,853.00,VWS V14.01,2013-04-18 21:30:00,
2013-04-18 14:33:00,74.6,32.1,29.70,North,355,4.0,12.0,21,0.00,,CLR,0.00,849.00,VWS V14.01,2013-04-18 21:33:00,
2013-04-18 14:34:00,74.4,33.1,29.70,NNE,15,0.0,12.0,22,0.00,,CLR,0.00,847.00,VWS V14.01,2013-04-18 21:34:00,
2013-04-18 14:38:00,74.4,33.1,29.70,North,11,0.0,12.0,22,0.00,,CLR,0.00,840.00,VWS V14.01,2013-04-18 21:38:00,
2013-04-18 14:39:00,74.5,33.2,29.70,North,360,3.0,12.0,22,0.00,,CLR,0.00,840.00,VWS V14.01,2013-04-18 21:39:00,
2013-04-18 14:40:00,74.5,33.2,29.70,NNW,344,2.0,12.0,22,0.00,,CLR,0.00,840.00,VWS V14.01,2013-04-18 21:40:00,
2013-04-18 14:43:00,74.6,33.3,29.70,SE,125,1.0,7.0,22,0.00,,CLR,0.00,835.00,VWS V14.01,2013-04-18 21:43:00,
2013-04-18 14:44:00,74.7,33.4,29.70,East,94,0.0,7.0,22,0.00,,CLR,0.00,833.00,VWS V14.01,2013-04-18 21:44:00,
2013-04-18 14:48:00,75.2,33.8,29.70,NNE,19,1.0,7.0,22,0.00,,CLR,0.00,831.00,VWS V14.01,2013-04-18 21:48:00,
2013-04-18 14:49:00,75.2,32.6,29.70,NE,46,1.0,7.0,21,0.00,,CLR,0.00,831.00,VWS V14.01,2013-04-18 21:49:00,
2013-04-18 14:50:00,75.3,32.7,29.70,NNE,28,2.0,7.0,21,0.00,,CLR,0.00,824.00,VWS V14.01,2013-04-18 21:50:00,
2013-04-18 14:53:00,75.5,32.9,29.70,NW,309,0.0,7.0,21,0.00,,CLR,0.00,819.00,VWS V14.01,2013-04-18 21:53:00,
2013-04-18 14:54:00,75.6,34.1,29.70,NW,309,2.0,7.0,22,0.00,,CLR,0.00,819.00,VWS V14.01,2013-04-18 21:54:00,
2013-04-18 14:58:00,76.4,34.8,29.70,NNE,18,2.0,7.0,22,0.00,,CLR,0.00,809.00,VWS V14.01,2013-04-18 21:58:00,
2013-04-18 14:59:00,76.5,32.5,29.70,NNE,16,0.0,7.0,20,0.00,,CLR,0.00,809.00,VWS V14.01,2013-04-18 21:59:00,
2013-04-18 15:00:00,76.6,32.6,29.70,NNE,22,4.0,9.0,20,0.00,,CLR,0.00,809.00,VWS V14.01,2013-04-18 22:00:00,
2013-04-18 15:03:00,76.1,33.4,29.70,North,5,2.0,11.0,21,0.00,,CLR,0.00,803.00,VWS V14.01,2013-04-18 22:03:00,
2013-04-18 15:04:00,75.9,33.2,29.70,North,360,4.0,11.0,21,0.00,,CLR,0.00,803.00,VWS V14.01,2013-04-18 22:04:00,
2013-04-18 15:08:00,75.5,32.9,29.70,NNW,343,2.0,11.0,21,0.00,,CLR,0.00,793.00,VWS V14.01,2013-04-18 22:08:00,
2013-04-18 15:09:00,75.4,32.8,29.70,NNW,345,0.0,11.0,21,0.00,,CLR,0.00,793.00,VWS V14.01,2013-04-18 22:09:00,
2013-04-18 15:10:00,75.3,32.7,29.70,North,360,1.0,11.0,21,0.00,,CLR,0.00,789.00,VWS V14.01,2013-04-18 22:10:00,
2013-04-18 15:14:00,75.1,32.5,29.69,North,11,0.0,7.0,21,0.00,,CLR,0.00,780.00,VWS V14.01,2013-04-18 22:14:00,
2013-04-18 15:19:00,75.2,32.6,29.69,NNW,348,1.0,12.0,21,0.00,,CLR,0.00,768.00,VWS V14.01,2013-04-18 22:19:00,
2013-04-18 15:20:00,75.3,33.9,29.69,North,355,0.0,4.0,22,0.00,,CLR,0.00,768.00,VWS V14.01,2013-04-18 22:20:00,
2013-04-18 15:24:00,75.5,34.0,29.69,North,5,3.0,8.0,22,0.00,,CLR,0.00,759.00,VWS V14.01,2013-04-18 22:24:00,
2013-04-18 15:25:00,75.5,34.0,29.69,NE,36,2.0,8.0,22,0.00,,CLR,0.00,756.00,VWS V14.01,2013-04-18 22:25:00,
2013-04-18 15:29:00,75.8,33.1,29.69,NNW,342,4.0,8.0,21,0.00,,CLR,0.00,749.00,VWS V14.01,2013-04-18 22:29:00,
2013-04-18 15:30:00,75.8,33.1,29.69,NNW,335,10.0,10.0,21,0.00,,CLR,0.00,749.00,VWS V14.01,2013-04-18 22:30:00,
2013-04-18 15:31:00,75.7,31.8,29.69,NNW,342,7.0,10.0,20,0.00,,CLR,0.00,747.00,VWS V14.01,2013-04-18 22:31:00,
2013-04-18 15:35:00,75.7,34.2,29.69,North,351,1.0,10.0,22,0.00,,CLR,0.00,738.00,VWS V14.01,2013-04-18 22:35:00,
2013-04-18 15:36:00,75.9,34.4,29.69,West,264,0.0,10.0,22,0.00,,CLR,0.00,735.00,VWS V14.01,2013-04-18 22:36:00,
2013-04-18 15:40:00,76.4,34.8,29.68,SSE,163,0.0,10.0,22,0.00,,CLR,0.00,726.00,VWS V14.01,2013-04-18 22:40:00,
2013-04-18 15:41:00,76.6,36.1,29.68,NE,42,2.0,2.0,23,0.00,,CLR,0.00,722.00,VWS V14.01,2013-04-18 22:41:00,
2013-04-18 15:45:00,76.3,34.7,29.68,NE,49,0.0,7.0,22,0.00,,CLR,0.00,714.00,VWS V14.01,2013-04-18 22:45:00,
2013-04-18 15:46:00,76.2,33.5,29.68,SE,124,5.0,7.0,21,0.00,,CLR,0.00,710.00,VWS V14.01,2013-04-18 22:46:00,
2013-04-18 15:50:00,76.0,33.3,29.68,NNW,346,0.0,3.0,21,0.00,,CLR,0.00,701.00,VWS V14.01,2013-04-18 22:50:00,
2013-04-18 15:51:00,76.0,34.5,29.68,NNE,17,1.0,3.0,22,0.00,,CLR,0.00,696.00,VWS V14.01,2013-04-18 22:51:00,
2013-04-18 15:55:00,76.5,34.9,29.68,NW,320,0.0,10.0,22,0.00,,CLR,0.00,689.00,VWS V14.01,2013-04-18 22:55:00,
2013-04-18 15:56:00,76.6,35.0,29.68,North,5,3.0,10.0,22,0.00,,CLR,0.00,682.00,VWS V14.01,2013-04-18 22:56:00,
2013-04-18 16:00:00,76.0,34.5,29.68,NE,48,3.0,10.0,22,0.00,,CLR,0.00,673.00,VWS V14.01,2013-04-18 23:00:00,
2013-04-18 16:01:00,75.9,34.4,29.68,NE,51,0.0,10.0,22,0.00,,CLR,0.00,670.00,VWS V14.01,2013-04-18 23:01:00,
2013-04-18 16:05:00,75.6,34.1,29.68,North,5,2.0,10.0,22,0.00,,CLR,0.00,661.00,VWS V14.01,2013-04-18 23:05:00,
2013-04-18 16:06:00,75.6,34.1,29.68,North,5,1.0,10.0,22,0.00,,CLR,0.00,659.00,VWS V14.01,2013-04-18 23:06:00,
2013-04-18 16:10:00,75.7,35.3,29.68,NE,41,1.0,9.0,23,0.00,,CLR,0.00,649.00,VWS V14.01,2013-04-18 23:10:00,
2013-04-18 16:11:00,75.7,35.3,29.67,NNE,19,2.0,9.0,23,0.00,,CLR,0.00,645.00,VWS V14.01,2013-04-18 23:11:00,
2013-04-18 16:12:00,75.6,34.1,29.67,North,360,5.0,9.0,22,0.00,,CLR,0.00,643.00,VWS V14.01,2013-04-18 23:12:00,
2013-04-18 16:15:00,75.4,34.0,29.67,NE,35,3.0,10.0,22,0.00,,CLR,0.00,635.00,VWS V14.01,2013-04-18 23:15:00,
2013-04-18 16:16:00,75.5,34.0,29.67,NE,35,0.0,10.0,22,0.00,,CLR,0.00,635.00,VWS V14.01,2013-04-18 23:16:00,
2013-04-18 16:17:00,75.5,35.2,29.67,NE,35,0.0,10.0,23,0.00,,CLR,0.00,628.00,VWS V14.01,2013-04-18 23:17:00,
2013-04-18 16:20:00,75.9,36.5,29.67,NNW,328,3.0,3.0,24,0.00,,CLR,0.00,622.00,VWS V14.01,2013-04-18 23:20:00,
2013-04-18 16:21:00,76.0,35.6,29.67,NNW,329,6.0,6.0,23,0.00,,CLR,0.00,617.00,VWS V14.01,2013-04-18 23:21:00,
2013-04-18 16:22:00,76.0,35.6,29.67,NE,40,0.0,7.0,23,0.00,,CLR,0.00,617.00,VWS V14.01,2013-04-18 23:22:00,
2013-04-18 16:25:00,76.2,34.6,29.67,North,11,4.0,8.0,22,0.00,,CLR,0.00,606.00,VWS V14.01,2013-04-18 23:25:00,
2013-04-18 16:26:00,76.2,34.6,29.67,North,11,3.0,8.0,22,0.00,,CLR,0.00,606.00,VWS V14.01,2013-04-18 23:26:00,
2013-04-18 16:27:00,76.1,34.5,29.67,NW,320,2.0,8.0,22,0.00,,CLR,0.00,605.00,VWS V14.01,2013-04-18 23:27:00,
2013-04-18 16:30:00,76.2,35.7,29.67,WNW,289,0.0,8.0,23,0.00,,CLR,0.00,596.00,VWS V14.01,2013-04-18 23:30:00,
2013-04-18 16:31:00,76.3,37.9,29.67,North,360,3.0,3.0,25,0.00,,CLR,0.00,592.00,VWS V14.01,2013-04-18 23:31:00,
2013-04-18 16:32:00,76.4,37.0,29.67,ESE,113,5.0,5.0,24,0.00,,CLR,0.00,589.00,VWS V14.01,2013-04-18 23:32:00,
2013-04-18 16:36:00,76.6,38.2,29.67,NNW,340,0.0,7.0,25,0.00,,CLR,0.00,577.00,VWS V14.01,2013-04-18 23:36:00,
2013-04-18 16:37:00,76.7,38.3,29.67,NNE,19,4.0,7.0,25,0.00,,CLR,0.00,573.00,VWS V14.01,2013-04-18 23:37:00,
2013-04-18 16:40:00,76.6,35.0,29.67,NNW,336,2.0,7.0,22,0.00,,CLR,0.00,568.00,VWS V14.01,2013-04-18 23:40:00,
2013-04-18 16:41:00,76.5,36.0,29.67,NE,51,1.0,5.0,23,0.00,,CLR,0.00,561.00,VWS V14.01,2013-04-18 23:41:00,
2013-04-18 16:42:00,76.5,36.0,29.67,North,11,0.0,5.0,23,0.00,,CLR,0.00,559.00,VWS V14.01,2013-04-18 23:42:00,
2013-04-18 16:43:00,76.4,37.0,29.67,North,5,1.0,5.0,24,0.00,,CLR,0.00,557.00,VWS V14.01,2013-04-18 23:43:00,
2013-04-18 16:46:00,76.2,35.7,29.66,NNE,17,1.0,6.0,23,0.00,,CLR,0.00,548.00,VWS V14.01,2013-04-18 23:46:00,
2013-04-18 16:47:00,76.1,35.7,29.67,NNE,13,3.0,6.0,23,0.00,,CLR,0.00,545.00,VWS V14.01,2013-04-18 23:47:00,
2013-04-18 16:48:00,75.8,35.4,29.66,NNE,17,1.0,6.0,23,0.00,,CLR,0.00,541.00,VWS V14.01,2013-04-18 23:48:00,
2013-04-18 16:50:00,75.7,36.4,29.67,NNW,334,3.0,6.0,24,0.00,,CLR,0.00,538.00,VWS V14.01,2013-04-18 23:50:00,
2013-04-18 16:51:00,75.6,37.3,29.67,East,91,2.0,7.0,25,0.00,,CLR,0.00,531.00,VWS V14.01,2013-04-18 23:51:00,
2013-04-18 16:52:00,75.6,37.3,29.67,East,101,0.0,7.0,25,0.00,,CLR,0.00,529.00,VWS V14.01,2013-04-18 23:52:00,
2013-04-18 16:53:00,75.5,37.2,29.67,NNE,16,1.0,7.0,25,0.00,,CLR,0.00,527.00,VWS V14.01,2013-04-18 23:53:00,
2013-04-18 16:57:00,75.5,37.2,29.67,NNW,346,6.0,7.0,25,0.00,,CLR,0.00,517.00,VWS V14.01,2013-04-18 23:57:00,
2013-04-18 16:58:00,75.4,37.2,29.67,North,355,3.0,7.0,25,0.00,,CLR,0.00,510.00,VWS V14.01,2013-04-18 23:58:00,
2013-04-18 17:00:00,75.4,37.2,29.67,NE,38,2.0,7.0,25,0.00,,CLR,0.00,504.00,VWS V14.01,2013-04-19 00:00:00,
2013-04-18 17:02:00,75.4,37.2,29.67,ESE,122,5.0,5.0,25,0.00,,CLR,0.00,497.00,VWS V14.01,2013-04-19 00:02:00,
2013-04-18 17:03:00,75.5,37.2,29.66,ENE,67,0.0,8.0,25,0.00,,CLR,0.00,496.00,VWS V14.01,2013-04-19 00:03:00,
2013-04-18 17:07:00,75.6,37.3,29.67,ESE,104,0.0,8.0,25,0.00,,CLR,0.00,483.00,VWS V14.01,2013-04-19 00:07:00,
2013-04-18 17:08:00,75.6,37.3,29.67,NE,48,0.0,8.0,25,0.00,,CLR,0.00,480.00,VWS V14.01,2013-04-19 00:08:00,
2013-04-18 17:10:00,75.6,37.3,29.67,NNE,17,0.0,8.0,25,0.00,,CLR,0.00,473.00,VWS V14.01,2013-04-19 00:10:00,
2013-04-18 17:12:00,75.5,37.2,29.67,NNE,19,1.0,3.0,25,0.00,,CLR,0.00,469.00,VWS V14.01,2013-04-19 00:12:00,
2013-04-18 17:14:00,75.5,37.2,29.66,North,355,3.0,3.0,25,0.00,,CLR,0.00,462.00,VWS V14.01,2013-04-19 00:14:00,
2013-04-18 17:17:00,75.4,37.2,29.67,NW,321,3.0,6.0,25,0.00,,CLR,0.00,452.00,VWS V14.01,2013-04-19 00:17:00,
2013-04-18 17:19:00,75.4,38.2,29.67,ENE,69,0.0,6.0,26,0.00,,CLR,0.00,446.00,VWS V14.01,2013-04-19 00:19:00,
2013-04-18 17:20:00,75.4,38.2,29.67,NE,45,1.0,6.0,26,0.00,,CLR,0.00,443.00,VWS V14.01,2013-04-19 00:20:00,
2013-04-18 17:22:00,75.3,37.1,29.66,NW,317,2.0,5.0,25,0.00,,CLR,0.00,432.00,VWS V14.01,2013-04-19 00:22:00,
2013-04-18 17:23:00,75.3,37.1,29.66,NW,317,3.0,5.0,25,0.00,,CLR,0.00,432.00,VWS V14.01,2013-04-19 00:23:00,
2013-04-18 17:24:00,75.3,37.1,29.66,NW,318,2.0,5.0,25,0.00,,CLR,0.00,429.00,VWS V14.01,2013-04-19 00:24:00,
2013-04-18 17:27:00,75.3,38.1,29.66,NNW,348,1.0,5.0,26,0.00,,CLR,0.00,418.00,VWS V14.01,2013-04-19 00:27:00,
2013-04-18 17:28:00,75.3,38.1,29.66,NNW,348,1.0,5.0,26,0.00,,CLR,0.00,418.00,VWS V14.01,2013-04-19 00:28:00,
2013-04-18 17:29:00,75.4,38.2,29.66,North,355,1.0,5.0,26,0.00,,CLR,0.00,411.00,VWS V14.01,2013-04-19 00:29:00,
2013-04-18 17:30:00,75.4,37.2,29.66,NNW,342,7.0,7.0,25,0.00,,CLR,0.00,410.00,VWS V14.01,2013-04-19 00:30:00,
2013-04-18 17:32:00,75.4,37.2,29.66,NNW,342,2.0,7.0,25,0.00,,CLR,0.00,401.00,VWS V14.01,2013-04-19 00:32:00,
2013-04-18 17:33:00,75.4,37.2,29.66,NNW,342,4.0,7.0,25,0.00,,CLR,0.00,401.00,VWS V14.01,2013-04-19 00:33:00,
2013-04-18 17:34:00,75.5,37.2,29.67,NNW,348,0.0,7.0,25,0.00,,CLR,0.00,397.00,VWS V14.01,2013-04-19 00:34:00,
2013-04-18 17:38:00,75.7,37.4,29.67,NNE,15,0.0,11.0,25,0.00,,CLR,0.00,383.00,VWS V14.01,2013-04-19 00:38:00,
2013-04-18 17:39:00,75.7,37.4,29.67,WNW,284,1.0,11.0,25,0.00,,CLR,0.00,378.00,VWS V14.01,2013-04-19 00:39:00,
2013-04-18 17:40:00,75.8,36.5,29.67,WNW,296,3.0,11.0,24,0.00,,CLR,0.00,374.00,VWS V14.01,2013-04-19 00:40:00,
2013-04-18 17:43:00,75.9,36.5,29.66,SSW,200,2.0,7.0,24,0.00,,CLR,0.00,366.00,VWS V14.01,2013-04-19 00:43:00,
2013-04-18 17:44:00,75.9,36.5,29.66,WSW,258,1.0,7.0,24,0.00,,CLR,0.00,360.00,VWS V14.01,2013-04-19 00:44:00,
2013-04-18 17:48:00,76.0,36.6,29.67,NE,40,1.0,9.0,24,0.00,,CLR,0.00,348.00,VWS V14.01,2013-04-19 00:48:00,
2013-04-18 17:49:00,76.0,36.6,29.67,West,263,1.0,9.0,24,0.00,,CLR,0.00,348.00,VWS V14.01,2013-04-19 00:49:00,
2013-04-18 17:50:00,75.9,36.6,29.67,West,259,0.0,9.0,24,0.00,,CLR,0.00,343.00,VWS V14.01,2013-04-19 00:50:00,
2013-04-18 17:53:00,76.0,36.6,29.67,WNW,290,0.0,2.0,24,0.00,,CLR,0.00,332.00,VWS V14.01,2013-04-19 00:53:00,
2013-04-18 17:54:00,76.0,36.6,29.67,NW,317,3.0,5.0,24,0.00,,CLR,0.00,325.00,VWS V14.01,2013-04-19 00:54:00,
2013-04-18 17:58:00,75.6,37.3,29.67,North,349,2.0,6.0,25,0.00,,CLR,0.00,315.00,VWS V14.01,2013-04-19 00:58:00,
2013-04-18 17:59:00,75.6,37.3,29.67,North,349,0.0,6.0,25,0.00,,CLR,0.00,311.00,VWS V14.01,2013-04-19 00:59:00,
2013-04-18 18:00:00,75.5,38.2,29.67,North,349,0.0,6.0,26,0.00,,CLR,0.00,308.00,VWS V14.01,2013-04-19 01:00:00,
2013-04-18 18:03:00,75.5,37.2,29.66,North,349,3.0,5.0,25,0.00,,CLR,0.00,299.00,VWS V14.01,2013-04-19 01:03:00,
2013-04-18 18:04:00,75.4,37.2,29.67,North,9,2.0,6.0,25,0.00,,CLR,0.00,294.00,VWS V14.01,2013-04-19 01:04:00,
2013-04-18 18:08:00,74.9,36.7,29.67,NNE,14,0.0,9.0,25,0.00,,CLR,0.00,279.00,VWS V14.01,2013-04-19 01:08:00,
2013-04-18 18:09:00,74.8,36.7,29.67,NNE,14,0.0,9.0,25,0.00,,CLR,0.00,276.00,VWS V14.01,2013-04-19 01:09:00,
2013-04-18 18:10:00,74.8,37.7,29.67,NNW,339,2.0,9.0,26,0.00,,CLR,0.00,272.00,VWS V14.01,2013-04-19 01:10:00,
2013-04-18 18:13:00,74.6,38.5,29.67,WNW,299,0.0,3.0,27,0.00,,CLR,0.00,260.00,VWS V14.01,2013-04-19 01:13:00,
2013-04-18 18:14:00,74.6,38.5,29.66,WNW,299,0.0,3.0,27,0.00,,CLR,0.00,258.00,VWS V14.01,2013-04-19 01:14:00,
2013-04-18 18:15:00,74.7,38.5,29.66,NNE,16,3.0,4.0,27,0.00,,CLR,0.00,255.00,VWS V14.01,2013-04-19 01:15:00,
2013-04-18 18:18:00,74.5,37.4,29.66,NNW,329,0.0,4.0,26,0.00,,CLR,0.00,244.00,VWS V14.01,2013-04-19 01:18:00,
2013-04-18 18:19:00,74.5,37.4,29.67,North,349,3.0,4.0,26,0.00,,CLR,0.00,243.00,VWS V14.01,2013-04-19 01:19:00,
2013-04-18 18:20:00,74.5,37.4,29.67,North,351,0.0,0.0,26,0.00,,CLR,0.00,237.00,VWS V14.01,2013-04-19 01:20:00,
2013-04-18 18:23:00,74.6,37.5,29.67,West,278,7.0,7.0,26,0.00,,CLR,0.00,227.00,VWS V14.01,2013-04-19 01:23:00,
2013-04-18 18:24:00,74.6,37.5,29.67,NW,309,1.0,7.0,26,0.00,,CLR,0.00,223.00,VWS V14.01,2013-04-19 01:24:00,
2013-04-18 18:25:00,74.5,37.4,29.67,NW,309,0.0,7.0,26,0.00,,CLR,0.00,221.00,VWS V14.01,2013-04-19 01:25:00,
2013-04-18 18:29:00,74.5,38.4,29.67,SW,226,0.0,7.0,27,0.00,,CLR,0.00,209.00,VWS V14.01,2013-04-19 01:29:00,
2013-04-18 18:30:00,74.5,38.4,29.67,West,269,0.0,5.0,27,0.00,,CLR,0.00,202.00,VWS V14.01,2013-04-19 01:30:00,
2013-04-18 18:34:00,74.6,40.3,29.67,WNW,283,0.0,5.0,29,0.00,,CLR,0.00,192.00,VWS V14.01,2013-04-19 01:34:00,
2013-04-18 18:35:00,74.6,40.3,29.67,WNW,283,0.0,5.0,29,0.00,,CLR,0.00,188.00,VWS V14.01,2013-04-19 01:35:00,
2013-04-18 18:39:00,74.4,41.0,29.67,West,260,1.0,5.0,30,0.00,,CLR,0.00,171.00,VWS V14.01,2013-04-19 01:39:00,
2013-04-18 18:40:00,74.4,41.0,29.67,West,260,0.0,5.0,30,0.00,,CLR,0.00,171.00,VWS V14.01,2013-04-19 01:40:00,
2013-04-18 18:45:00,73.9,41.4,29.67,WSW,252,9.0,10.0,31,0.00,,CLR,0.00,155.00,VWS V14.01,2013-04-19 01:45:00,
2013-04-18 18:46:00,73.7,40.4,29.67,SW,232,0.0,10.0,30,0.00,,CLR,0.00,151.00,VWS V14.01,2013-04-19 01:46:00,
2013-04-18 18:50:00,72.9,40.5,29.67,West,259,3.0,3.0,31,0.00,,CLR,0.00,137.00,VWS V14.01,2013-04-19 01:50:00,
2013-04-18 18:51:00,72.6,40.3,29.67,SSE,166,4.0,4.0,31,0.00,,CLR,0.00,134.00,VWS V14.01,2013-04-19 01:51:00,
2013-04-18 18:55:00,71.8,39.6,29.67,WSW,244,3.0,9.0,31,0.00,,CLR,0.00,118.00,VWS V14.01,2013-04-19 01:55:00,
2013-04-18 18:56:00,71.7,39.5,29.67,West,267,1.0,9.0,31,0.00,,CLR,0.00,114.00,VWS V14.01,2013-04-19 01:56:00,
2013-04-18 18:57:00,71.5,40.1,29.67,WNW,300,1.0,9.0,32,0.00,,CLR,0.00,113.00,VWS V14.01,2013-04-19 01:57:00,
2013-04-18 19:00:00,71.0,39.7,29.67,West,263,0.0,0.0,32,0.00,,CLR,0.00,100.00,VWS V14.01,2013-04-19 02:00:00,
2013-04-18 19:01:00,70.9,39.6,29.68,West,263,0.0,0.0,32,0.00,,CLR,0.00,100.00,VWS V14.01,2013-04-19 02:01:00,
2013-04-18 19:02:00,70.8,39.5,29.68,SE,141,0.0,2.0,32,0.00,,CLR,0.00,83.00,VWS V14.01,2013-04-19 02:02:00,
2013-04-18 19:05:00,70.3,39.9,29.68,WSW,256,0.0,8.0,33,0.00,,CLR,0.00,53.00,VWS V14.01,2013-04-19 02:05:00,
2013-04-18 19:06:00,70.2,39.8,29.68,WSW,256,0.0,8.0,33,0.00,,CLR,0.00,53.00,VWS V14.01,2013-04-19 02:06:00,
2013-04-18 19:07:00,70.0,39.6,29.68,West,279,5.0,8.0,33,0.00,,CLR,0.00,46.00,VWS V14.01,2013-04-19 02:07:00,
2013-04-18 19:10:00,69.5,39.2,29.68,NW,317,0.0,4.0,33,0.00,,CLR,0.00,39.00,VWS V14.01,2013-04-19 02:10:00,
2013-04-18 19:11:00,69.4,39.1,29.68,NW,308,0.0,4.0,33,0.00,,CLR,0.00,37.00,VWS V14.01,2013-04-19 02:11:00,
2013-04-18 19:12:00,69.3,39.8,29.68,NW,308,0.0,4.0,34,0.00,,CLR,0.00,35.00,VWS V14.01,2013-04-19 02:12:00,
2013-04-18 19:15:00,68.9,40.2,29.68,North,355,0.0,4.0,35,0.00,,CLR,0.00,35.00,VWS V14.01,2013-04-19 02:15:00,
2013-04-18 19:16:00,68.8,39.3,29.68,NNW,327,0.0,4.0,34,0.00,,CLR,0.00,33.00,VWS V14.01,2013-04-19 02:16:00,
2013-04-18 19:17:00,68.7,39.2,29.68,NW,311,0.0,4.0,34,0.00,,CLR,0.00,33.00,VWS V14.01,2013-04-19 02:17:00,
2013-04-18 19:20:00,68.3,39.6,29.68,NW,311,0.0,0.0,35,0.00,,CLR,0.00,25.00,VWS V14.01,2013-04-19 02:20:00,
2013-04-18 19:21:00,68.2,39.5,29.68,NW,311,0.0,0.0,35,0.00,,CLR,0.00,21.00,VWS V14.01,2013-04-19 02:21:00,
2013-04-18 19:22:00,68.2,39.5,29.68,NW,311,0.0,0.0,35,0.00,,CLR,0.00,21.00,VWS V14.01,2013-04-19 02:22:00,
2013-04-18 19:25:00,67.9,39.3,29.68,NW,311,0.0,0.0,35,0.00,,CLR,0.00,18.00,VWS V14.01,2013-04-19 02:25:00,
2013-04-18 19:26:00,67.9,40.0,29.68,NW,311,0.0,0.0,36,0.00,,CLR,0.00,18.00,VWS V14.01,2013-04-19 02:26:00,
2013-04-18 19:27:00,67.8,39.9,29.68,NW,311,1.0,1.0,36,0.00,,CLR,0.00,18.00,VWS V14.01,2013-04-19 02:27:00,
2013-04-18 19:30:00,67.5,38.9,29.68,NW,306,0.0,1.0,35,0.00,,CLR,0.00,14.00,VWS V14.01,2013-04-19 02:30:00,
2013-04-18 19:31:00,67.5,38.9,29.68,NW,306,1.0,1.0,35,0.00,,CLR,0.00,14.00,VWS V14.01,2013-04-19 02:31:00,
2013-04-18 19:32:00,67.4,38.8,29.68,NW,306,0.0,1.0,35,0.00,,CLR,0.00,14.00,VWS V14.01,2013-04-19 02:32:00,
2013-04-18 19:35:00,67.0,38.5,29.68,NW,306,0.0,1.0,35,0.00,,CLR,0.00,12.00,VWS V14.01,2013-04-19 02:35:00,
2013-04-18 19:36:00,67.0,38.5,29.68,NW,306,0.0,1.0,35,0.00,,CLR,0.00,11.00,VWS V14.01,2013-04-19 02:36:00,
2013-04-18 19:37:00,66.9,38.4,29.67,NW,306,0.0,1.0,35,0.00,,CLR,0.00,11.00,VWS V14.01,2013-04-19 02:37:00,
2013-04-18 19:38:00,66.8,39.0,29.68,NW,306,0.0,1.0,36,0.00,,CLR,0.00,11.00,VWS V14.01,2013-04-19 02:38:00,
2013-04-18 19:40:00,66.7,39.6,29.68,WNW,300,2.0,2.0,37,0.00,,CLR,0.00,9.00,VWS V14.01,2013-04-19 02:40:00,
2013-04-18 19:41:00,66.6,38.8,29.68,WNW,300,0.0,2.0,36,0.00,,CLR,0.00,9.00,VWS V14.01,2013-04-19 02:41:00,
2013-04-18 19:42:00,66.5,38.8,29.68,WNW,300,0.0,2.0,36,0.00,,CLR,0.00,7.00,VWS V14.01,2013-04-19 02:42:00,
2013-04-18 19:43:00,66.4,38.7,29.68,WNW,301,0.0,5.0,36,0.00,,CLR,0.00,7.00,VWS V14.01,2013-04-19 02:43:00,
2013-04-18 19:46:00,66.1,38.4,29.68,WSW,240,0.0,5.0,36,0.00,,CLR,0.00,5.00,VWS V14.01,2013-04-19 02:46:00,
2013-04-18 19:47:00,66.0,38.3,29.68,WSW,254,1.0,5.0,36,0.00,,CLR,0.00,5.00,VWS V14.01,2013-04-19 02:47:00,
2013-04-18 19:48:00,65.9,38.9,29.68,West,277,0.0,5.0,37,0.00,,CLR,0.00,0.00,VWS V14.01,2013-04-19 02:48:00,
2013-04-18 19:50:00,65.8,38.8,29.68,SW,229,0.0,5.0,37,0.00,,CLR,0.00,0.00,VWS V14.01,2013-04-19 02:50:00,
2013-04-18 19:51:00,65.7,38.7,29.68,WSW,250,0.0,4.0,37,0.00,,CLR,0.00,0.00,VWS V14.01,2013-04-19 02:51:00,
2013-04-18 19:52:00,65.5,38.6,29.68,WSW,248,0.0,4.0,37,0.00,,CLR,0.00,0.00,VWS V14.01,2013-04-19 02:52:00,
2013-04-18 19:53:00,65.4,38.5,29.68,WSW,250,2.0,4.0,37,0.00,,CLR,0.00,0.00,VWS V14.01,2013-04-19 02:53:00,
2013-04-18 19:56:00,65.2,39.0,29.68,SSW,207,0.0,4.0,38,0.00,,CLR,0.00,0.00,VWS V14.01,2013-04-19 02:56:00,
2013-04-18 19:57:00,65.1,38.2,29.68,SSW,207,0.0,4.0,37,0.00,,CLR,0.00,0.00,VWS V14.01,2013-04-19 02:57:00,
2013-04-18 19:58:00,65.0,38.8,29.68,SW,217,0.0,4.0,38,0.00,,CLR,0.00,0.00,VWS V14.01,2013-04-19 02:58:00,
2013-04-18 20:00:00,65.0,38.8,29.68,SW,218,1.0,4.0,38,0.00,,CLR,0.00,0.00,VWS V14.01,2013-04-19 03:00:00,
2013-04-18 20:01:00,64.9,38.7,29.68,SW,218,0.0,1.0,38,0.00,,CLR,0.00,0.00,VWS V14.01,2013-04-19 03:01:00,
2013-04-18 20:02:00,64.8,38.6,29.68,SW,224,3.0,3.0,38,0.00,,CLR,0.00,0.00,VWS V14.01,2013-04-19 03:02:00,
2013-04-18 20:03:00,64.6,38.4,29.68,SW,236,0.0,3.0,38,0.00,,CLR,0.00,0.00,VWS V14.01,2013-04-19 03:03:00,
2013-04-18 20:06:00,64.4,38.3,29.68,SW,232,1.0,4.0,38,0.00,,CLR,0.00,0.00,VWS V14.01,2013-04-19 03:06:00,
2013-04-18 20:07:00,64.3,38.2,29.68,SW,232,0.0,4.0,38,0.00,,CLR,0.00,0.00,VWS V14.01,2013-04-19 03:07:00,
2013-04-18 20:08:00,64.2,38.8,29.68,SW,232,0.0,4.0,39,0.00,,CLR,0.00,0.00,VWS V14.01,2013-04-19 03:08:00,
2013-04-18 20:10:00,64.1,38.7,29.68,SW,232,0.0,4.0,39,0.00,,CLR,0.00,0.00,VWS V14.01,2013-04-19 03:10:00,
2013-04-18 20:11:00,64.0,38.6,29.68,SSW,202,2.0,5.0,39,0.00,,CLR,0.00,0.00,VWS V14.01,2013-04-19 03:11:00,
2013-04-18 20:12:00,63.9,38.5,29.68,WSW,247,3.0,5.0,39,0.00,,CLR,0.00,0.00,VWS V14.01,2013-04-19 03:12:00,
2013-04-18 20:13:00,63.8,38.4,29.68,WSW,250,0.0,5.0,39,0.00,,CLR,0.00,0.00,VWS V14.01,2013-04-19 03:13:00,
2013-04-18 20:16:00,63.6,38.9,29.68,WSW,250,0.0,5.0,40,0.00,,CLR,0.00,0.00,VWS V14.01,2013-04-19 03:16:00,
2013-04-18 20:17:00,63.5,38.8,29.68,WSW,258,1.0,5.0,40,0.00,,CLR,0.00,0.00,VWS V14.01,2013-04-19 03:17:00,
2013-04-18 20:19:00,63.4,38.7,29.69,WSW,258,0.0,5.0,40,0.00,,CLR,0.00,0.00,VWS V14.01,2013-04-19 03:19:00,
2013-04-18 20:20:00,63.4,38.7,29.69,WSW,258,0.0,5.0,40,0.00,,CLR,0.00,0.00,VWS V14.01,2013-04-19 03:20:00,
2013-04-18 20:21:00,63.3,38.6,29.69,WSW,258,0.0,0.0,40,0.00,,CLR,0.00,0.00,VWS V14.01,2013-04-19 03:21:00,
2013-04-18 20:22:00,63.2,39.1,29.69,WSW,258,0.0,0.0,41,0.00,,CLR,0.00,0.00,VWS V14.01,2013-04-19 03:22:00,
2013-04-18 20:23:00,63.2,39.1,29.69,WNW,283,0.0,2.0,41,0.00,,CLR,0.00,0.00,VWS V14.01,2013-04-19 03:23:00,
2013-04-18 20:24:00,63.1,39.0,29.69,WNW,283,0.0,2.0,41,0.00,,CLR,0.00,0.00,VWS V14.01,2013-04-19 03:24:00,
2013-04-18 20:26:00,62.8,41.2,29.69,WNW,282,0.0,2.0,45,0.00,,CLR,0.00,0.00,VWS V14.01,2013-04-19 03:26:00,
2013-04-18 20:27:00,62.7,42.8,29.69,WSW,238,0.0,2.0,48,0.00,,CLR,0.00,0.00,VWS V14.01,2013-04-19 03:27:00,
2013-04-18 20:28:00,62.7,44.8,29.69,WSW,238,0.0,2.0,52,0.00,,CLR,0.00,0.00,VWS V14.01,2013-04-19 03:28:00,
2013-04-18 20:29:00,62.5,45.7,29.69,SSW,202,0.0,2.0,54,0.00,,CLR,0.00,0.00,VWS V14.01,2013-04-19 03:29:00,
2013-04-18 20:30:00,62.4,45.5,29.69,SSW,202,0.0,2.0,54,0.00,,CLR,0.00,0.00,VWS V14.01,2013-04-19 03:30:00,
2013-04-18 20:31:00,62.0,45.7,29.69,SSW,202,0.0,0.0,55,0.00,,CLR,0.00,0.00,VWS V14.01,2013-04-19 03:31:00,
2013-04-18 20:32:00,61.9,46.0,29.69,SSW,202,0.0,0.0,56,0.00,,CLR,0.00,0.00,VWS V14.01,2013-04-19 03:32:00,
2013-04-18 20:33:00,61.8,46.4,29.69,SSW,202,0.0,0.0,57,0.00,,CLR,0.00,0.00,VWS V14.01,2013-04-19 03:33:00,
2013-04-18 20:34:00,61.5,46.1,29.70,SSW,202,0.0,0.0,57,0.00,,CLR,0.00,0.00,VWS V14.01,2013-04-19 03:34:00,
2013-04-18 20:37:00,60.9,46.5,29.70,South,188,0.0,1.0,59,0.00,,CLR,0.00,0.00,VWS V14.01,2013-04-19 03:37:00,
2013-04-18 20:38:00,60.7,46.3,29.69,South,188,0.0,1.0,59,0.00,,CLR,0.00,0.00,VWS V14.01,2013-04-19 03:38:00,
2013-04-18 20:39:00,60.3,46.4,29.70,South,188,0.0,1.0,60,0.00,,CLR,0.00,0.00,VWS V14.01,2013-04-19 03:39:00,
2013-04-18 20:40:00,60.2,46.7,29.70,South,188,0.0,1.0,61,0.00,,CLR,0.00,0.00,VWS V14.01,2013-04-19 03:40:00,
2013-04-18 20:42:00,59.6,46.6,29.70,South,188,0.0,0.0,62,0.00,,CLR,0.00,0.00,VWS V14.01,2013-04-19 03:42:00,
2013-04-18 20:43:00,59.3,46.3,29.70,South,188,0.0,1.0,62,0.00,,CLR,0.00,0.00,VWS V14.01,2013-04-19 03:43:00,
2013-04-18 20:44:00,58.9,46.3,29.70,South,177,0.0,1.0,63,0.00,,CLR,0.00,0.00,VWS V14.01,2013-04-19 03:44:00,
2013-04-18 20:47:00,58.4,46.7,29.70,South,177,0.0,1.0,65,0.00,,CLR,0.00,0.00,VWS V14.01,2013-04-19 03:47:00,
2013-04-18 20:48:00,58.2,46.5,29.70,South,177,0.0,1.0,65,0.00,,CLR,0.00,0.00,VWS V14.01,2013-04-19 03:48:00,
2013-04-18 20:50:00,57.8,46.5,29.70,South,177,0.0,0.0,66,0.00,,CLR,0.00,0.00,VWS V14.01,2013-04-19 03:50:00,
2013-04-18 20:52:00,57.6,46.7,29.70,South,177,0.0,0.0,67,0.00,,CLR,0.00,0.00,VWS V14.01,2013-04-19 03:52:00,
2013-04-18 20:53:00,57.5,46.6,29.70,South,177,0.0,0.0,67,0.00,,CLR,0.00,0.00,VWS V14.01,2013-04-19 03:53:00,
2013-04-18 20:54:00,57.3,46.5,29.70,South,177,0.0,0.0,67,0.00,,CLR,0.00,0.00,VWS V14.01,2013-04-19 03:54:00,
2013-04-18 20:55:00,57.2,46.8,29.70,South,177,0.0,0.0,68,0.00,,CLR,0.00,0.00,VWS V14.01,2013-04-19 03:55:00,
2013-04-18 20:57:00,56.9,46.5,29.70,South,177,0.0,0.0,68,0.00,,CLR,0.00,0.00,VWS V14.01,2013-04-19 03:57:00,
2013-04-18 20:58:00,56.8,46.4,29.70,South,177,0.0,0.0,68,0.00,,CLR,0.00,0.00,VWS V14.01,2013-04-19 03:58:00,
2013-04-18 20:59:00,56.7,46.7,29.70,South,177,0.0,0.0,69,0.00,,CLR,0.00,0.00,VWS V14.01,2013-04-19 03:59:00,
2013-04-18 21:00:00,56.6,46.6,29.70,South,177,0.0,0.0,69,0.00,,CLR,0.00,0.00,VWS V14.01,2013-04-19 04:00:00,
2013-04-18 21:01:00,56.5,46.5,29.70,South,177,0.0,0.0,69,0.00,,CLR,0.00,0.00,VWS V14.01,2013-04-19 04:01:00,
2013-04-18 21:06:00,56.0,46.4,29.70,South,177,0.0,0.0,70,0.00,,CLR,0.00,0.00,VWS V14.01,2013-04-19 04:06:00,
2013-04-18 21:10:00,55.8,46.2,29.70,South,177,0.0,0.0,70,0.00,,CLR,0.00,0.00,VWS V14.01,2013-04-19 04:10:00,
2013-04-18 21:11:00,55.7,46.1,29.71,South,177,0.0,0.0,70,0.00,,CLR,0.00,0.00,VWS V14.01,2013-04-19 04:11:00,
2013-04-18 21:16:00,55.4,46.2,29.71,South,177,0.0,0.0,71,0.00,,CLR,0.00,0.00,VWS V14.01,2013-04-19 04:16:00,
2013-04-18 21:20:00,55.2,46.0,29.71,South,177,0.0,0.0,71,0.00,,CLR,0.00,0.00,VWS V14.01,2013-04-19 04:20:00,
2013-04-18 21:21:00,55.1,45.9,29.71,South,177,0.0,0.0,71,0.00,,CLR,0.00,0.00,VWS V14.01,2013-04-19 04:21:00,
2013-04-18 21:26:00,54.9,46.1,29.71,South,177,0.0,0.0,72,0.00,,CLR,0.00,0.00,VWS V14.01,2013-04-19 04:26:00,
2013-04-18 21:30:00,54.8,46.0,29.71,South,177,0.0,0.0,72,0.00,,CLR,0.00,0.00,VWS V14.01,2013-04-19 04:30:00,
2013-04-18 21:31:00,54.7,45.9,29.71,South,177,0.0,0.0,72,0.00,,CLR,0.00,0.00,VWS V14.01,2013-04-19 04:31:00,
2013-04-18 21:32:00,54.7,45.9,29.71,South,177,0.0,0.0,72,0.00,,CLR,0.00,0.00,VWS V14.01,2013-04-19 04:32:00,
2013-04-18 21:36:00,54.6,45.8,29.71,South,177,0.0,0.0,72,0.00,,CLR,0.00,0.00,VWS V14.01,2013-04-19 04:36:00,
2013-04-18 21:37:00,54.6,45.8,29.71,South,177,0.0,0.0,72,0.00,,CLR,0.00,0.00,VWS V14.01,2013-04-19 04:37:00,
2013-04-18 21:40:00,54.5,45.3,29.71,South,177,0.0,0.0,71,0.00,,CLR,0.00,0.00,VWS V14.01,2013-04-19 04:40:00,
2013-04-18 21:41:00,54.5,44.5,29.71,South,177,0.0,0.0,69,0.00,,CLR,0.00,0.00,VWS V14.01,2013-04-19 04:41:00,
2013-04-18 21:42:00,54.4,44.5,29.71,South,177,0.0,0.0,69,0.00,,CLR,0.00,0.00,VWS V14.01,2013-04-19 04:42:00,
2013-04-18 21:46:00,54.5,41.8,29.71,South,177,0.0,0.0,62,0.00,,CLR,0.00,0.00,VWS V14.01,2013-04-19 04:46:00,
2013-04-18 21:47:00,54.5,40.5,29.71,South,177,0.0,0.0,59,0.00,,CLR,0.00,0.00,VWS V14.01,2013-04-19 04:47:00,
2013-04-18 21:50:00,54.6,41.9,29.71,South,177,0.0,0.0,62,0.00,,CLR,0.00,0.00,VWS V14.01,2013-04-19 04:50:00,
2013-04-18 21:52:00,54.7,42.8,29.71,South,177,0.0,0.0,64,0.00,,CLR,0.00,0.00,VWS V14.01,2013-04-19 04:52:00,
2013-04-18 21:57:00,54.6,41.4,29.71,South,177,0.0,0.0,61,0.00,,CLR,0.00,0.00,VWS V14.01,2013-04-19 04:57:00,
2013-04-18 21:58:00,54.6,41.4,29.71,South,177,0.0,0.0,61,0.00,,CLR,0.00,0.00,VWS V14.01,2013-04-19 04:58:00,
2013-04-18 22:00:00,54.6,40.6,29.71,South,177,0.0,0.0,59,0.00,,CLR,0.00,0.00,VWS V14.01,2013-04-19 05:00:00,
2013-04-18 22:02:00,54.6,41.4,29.71,South,177,0.0,0.0,61,0.00,,CLR,0.00,0.00,VWS V14.01,2013-04-19 05:02:00,
2013-04-18 22:03:00,54.5,41.3,29.71,South,177,0.0,0.0,61,0.00,,CLR,0.00,0.00,VWS V14.01,2013-04-19 05:03:00,
2013-04-18 22:07:00,54.5,42.2,29.71,South,177,0.0,0.0,63,0.00,,CLR,0.00,0.00,VWS V14.01,2013-04-19 05:07:00,
2013-04-18 22:08:00,54.5,42.2,29.71,South,177,0.0,0.0,63,0.00,,CLR,0.00,0.00,VWS V14.01,2013-04-19 05:08:00,
2013-04-18 22:10:00,54.4,42.1,29.71,South,177,0.0,0.0,63,0.00,,CLR,0.00,0.00,VWS V14.01,2013-04-19 05:10:00,
2013-04-18 22:13:00,54.3,41.2,29.71,South,177,0.0,0.0,61,0.00,,CLR,0.00,0.00,VWS V14.01,2013-04-19 05:13:00,
2013-04-18 22:18:00,54.1,40.5,29.71,South,177,0.0,0.0,60,0.00,,CLR,0.00,0.00,VWS V14.01,2013-04-19 05:18:00,
2013-04-18 22:20:00,54.1,40.5,29.71,South,177,0.0,0.0,60,0.00,,CLR,0.00,0.00,VWS V14.01,2013-04-19 05:20:00,
2013-04-18 22:23:00,54.1,40.5,29.71,South,177,0.0,0.0,60,0.00,,CLR,0.00,0.00,VWS V14.01,2013-04-19 05:23:00,
2013-04-18 22:28:00,53.9,41.2,29.71,South,177,0.0,0.0,62,0.00,,CLR,0.00,0.00,VWS V14.01,2013-04-19 05:28:00,
2013-04-18 22:29:00,53.9,41.2,29.71,South,177,0.0,0.0,62,0.00,,CLR,0.00,0.00,VWS V14.01,2013-04-19 05:29:00,
2013-04-18 22:30:00,53.9,41.2,29.71,South,177,0.0,0.0,62,0.00,,CLR,0.00,0.00,VWS V14.01,2013-04-19 05:30:00,
2013-04-18 22:33:00,53.7,40.6,29.72,South,177,0.0,0.0,61,0.00,,CLR,0.00,0.00,VWS V14.01,2013-04-19 05:33:00,
2013-04-18 22:34:00,53.6,40.9,29.72,South,177,0.0,0.0,62,0.00,,CLR,0.00,0.00,VWS V14.01,2013-04-19 05:34:00,
2013-04-18 22:38:00,53.3,40.2,29.72,South,177,0.0,0.0,61,0.00,,CLR,0.00,0.00,VWS V14.01,2013-04-19 05:38:00,
2013-04-18 22:39:00,53.3,40.2,29.72,South,177,0.0,0.0,61,0.00,,CLR,0.00,0.00,VWS V14.01,2013-04-19 05:39:00,
2013-04-18 22:40:00,53.3,40.6,29.72,South,177,0.0,0.0,62,0.00,,CLR,0.00,0.00,VWS V14.01,2013-04-19 05:40:00,
2013-04-18 22:43:00,53.2,40.5,29.71,South,177,0.0,0.0,62,0.00,,CLR,0.00,0.00,VWS V14.01,2013-04-19 05:43:00,
2013-04-18 22:44:00,53.2,40.5,29.71,South,177,0.0,0.0,62,0.00,,CLR,0.00,0.00,VWS V14.01,2013-04-19 05:44:00,
2013-04-18 22:48:00,53.1,40.0,29.71,South,177,0.0,0.0,61,0.00,,CLR,0.00,0.00,VWS V14.01,2013-04-19 05:48:00,
2013-04-18 22:49:00,53.1,39.6,29.71,South,177,0.0,0.0,60,0.00,,CLR,0.00,0.00,VWS V14.01,2013-04-19 05:49:00,
2013-04-18 22:50:00,53.1,39.6,29.71,South,177,0.0,0.0,60,0.00,,CLR,0.00,0.00,VWS V14.01,2013-04-19 05:50:00,
2013-04-18 22:53:00,53.0,39.9,29.71,South,177,0.0,0.0,61,0.00,,CLR,0.00,0.00,VWS V14.01,2013-04-19 05:53:00,
2013-04-18 22:54:00,53.0,39.9,29.71,South,177,0.0,0.0,61,0.00,,CLR,0.00,0.00,VWS V14.01,2013-04-19 05:54:00,
2013-04-18 22:58:00,52.9,40.2,29.71,South,177,0.0,0.0,62,0.00,,CLR,0.00,0.00,VWS V14.01,2013-04-19 05:58:00,
2013-04-18 22:59:00,52.9,40.2,29.72,South,177,0.0,0.0,62,0.00,,CLR,0.00,0.00,VWS V14.01,2013-04-19 05:59:00,
2013-04-18 23:00:00,52.8,40.2,29.72,South,177,0.0,0.0,62,0.00,,CLR,0.00,0.00,VWS V14.01,2013-04-19 06:00:00,
2013-04-18 23:03:00,52.7,39.6,29.72,South,177,0.0,0.0,61,0.00,,CLR,0.00,0.00,VWS V14.01,2013-04-19 06:03:00,
2013-04-18 23:04:00,52.7,39.6,29.72,South,177,0.0,0.0,61,0.00,,CLR,0.00,0.00,VWS V14.01,2013-04-19 06:04:00,
2013-04-18 23:08:00,52.6,40.4,29.72,South,177,0.0,0.0,63,0.00,,CLR,0.00,0.00,VWS V14.01,2013-04-19 06:08:00,
2013-04-18 23:09:00,52.6,40.4,29.72,South,177,0.0,0.0,63,0.00,,CLR,0.00,0.00,VWS V14.01,2013-04-19 06:09:00,
2013-04-18 23:10:00,52.5,40.3,29.72,South,177,0.0,0.0,63,0.00,,CLR,0.00,0.00,VWS V14.01,2013-04-19 06:10:00,
2013-04-18 23:13:00,52.4,40.2,29.72,South,177,0.0,0.0,63,0.00,,CLR,0.00,0.00,VWS V14.01,2013-04-19 06:13:00,
2013-04-18 23:14:00,52.3,40.1,29.72,South,177,0.0,0.0,63,0.00,,CLR,0.00,0.00,VWS V14.01,2013-04-19 06:14:00,
2013-04-18 23:15:00,52.3,40.1,29.72,South,177,0.0,0.0,63,0.00,,CLR,0.00,0.00,VWS V14.01,2013-04-19 06:15:00,
2013-04-18 23:19:00,52.1,40.7,29.72,South,177,0.0,0.0,65,0.00,,CLR,0.00,0.00,VWS V14.01,2013-04-19 06:19:00,
2013-04-18 23:20:00,52.1,40.7,29.72,South,177,0.0,0.0,65,0.00,,CLR,0.00,0.00,VWS V14.01,2013-04-19 06:20:00,
2013-04-18 23:24:00,51.9,40.1,29.72,South,177,0.0,0.0,64,0.00,,CLR,0.00,0.00,VWS V14.01,2013-04-19 06:24:00,
2013-04-18 23:25:00,51.8,40.0,29.72,South,177,0.0,0.0,64,0.00,,CLR,0.00,0.00,VWS V14.01,2013-04-19 06:25:00,
2013-04-18 23:29:00,51.8,40.4,29.72,South,177,0.0,0.0,65,0.00,,CLR,0.00,0.00,VWS V14.01,2013-04-19 06:29:00,
2013-04-18 23:30:00,51.7,40.3,29.72,South,177,0.0,0.0,65,0.00,,CLR,0.00,0.00,VWS V14.01,2013-04-19 06:30:00,
2013-04-18 23:34:00,51.6,40.6,29.72,South,177,0.0,0.0,66,0.00,,CLR,0.00,0.00,VWS V14.01,2013-04-19 06:34:00,
2013-04-18 23:35:00,51.5,40.5,29.71,South,177,0.0,0.0,66,0.00,,CLR,0.00,0.00,VWS V14.01,2013-04-19 06:35:00,
2013-04-18 23:39:00,51.4,40.4,29.71,South,177,0.0,0.0,66,0.00,,CLR,0.00,0.00,VWS V14.01,2013-04-19 06:39:00,
2013-04-18 23:40:00,51.3,40.3,29.71,South,177,0.0,0.0,66,0.00,,CLR,0.00,0.00,VWS V14.01,2013-04-19 06:40:00,
2013-04-18 23:44:00,51.1,40.5,29.71,South,177,0.0,0.0,67,0.00,,CLR,0.00,0.00,VWS V14.01,2013-04-19 06:44:00,
2013-04-18 23:45:00,51.0,40.4,29.71,South,177,0.0,0.0,67,0.00,,CLR,0.00,0.00,VWS V14.01,2013-04-19 06:45:00,
2013-04-18 23:46:00,51.0,40.4,29.71,South,177,0.0,0.0,67,0.00,,CLR,0.00,0.00,VWS V14.01,2013-04-19 06:46:00,
2013-04-18 23:49:00,50.9,40.3,29.71,South,177,0.0,0.0,67,0.00,,CLR,0.00,0.00,VWS V14.01,2013-04-19 06:49:00,
2013-04-18 23:50:00,50.8,40.2,29.71,South,177,0.0,0.0,67,0.00,,CLR,0.00,0.00,VWS V14.01,2013-04-19 06:50:00,
2013-04-18 23:51:00,50.8,40.6,29.71,South,177,0.0,0.0,68,0.00,,CLR,0.00,0.00,VWS V14.01,2013-04-19 06:51:00,
2013-04-18 23:52:00,50.8,40.6,29.71,South,177,0.0,0.0,68,0.00,,CLR,0.00,0.00,VWS V14.01,2013-04-19 06:52:00,
2013-04-18 23:54:00,50.7,40.5,29.71,South,177,0.0,0.0,68,0.00,,CLR,0.00,0.00,VWS V14.01,2013-04-19 06:54:00,
2013-04-18 23:55:00,50.6,40.4,29.71,South,177,0.0,0.0,68,0.00,,CLR,0.00,0.00,VWS V14.01,2013-04-19 06:55:00,
2013-04-18 23:56:00,50.6,40.4,29.71,South,177,0.0,0.0,68,0.00,,CLR,0.00,0.00,VWS V14.01,2013-04-19 06:56:00,
2013-04-18 23:57:00,50.5,40.3,29.71,South,177,0.0,0.0,68,0.00,,CLR,0.00,0.00,VWS V14.01,2013-04-19 06:57:00,
2013-04-18 23:59:00,50.4,40.2,29.71,South,177,0.0,0.0,68,0.00,,CLR,0.00,0.00,VWS V14.01,2013-04-19 06:59:00,